Time,TemperatureF,DewpointF,PressureIn,WindDirection,WindDirectionDegrees,WindSpeedMPH,WindSpeedGustMPH,Humidity,HourlyPrecipIn,Conditions,Clouds,dailyrainin,SolarRadiationWatts/m^2,SoftwareType,DateUTC
2013-02-16 00:00:00,38.8,30.2,29.93,WSW,238,0.0,2.0,71,0.00,,---,0.00,0.00,VWS V14.01,2013-02-16 05:00:00,
2013-02-16 00:05:00,38.6,30.0,29.94,WSW,252,0.0,2.0,71,0.00,,---,0.00,0.00,VWS V14.01,2013-02-16 05:05:00,
2013-02-16 00:10:00,38.6,30.4,29.93,WSW,252,1.0,4.0,72,0.00,,---,0.00,0.00,VWS V14.01,2013-02-16 05:10:00,
2013-02-16 00:15:00,38.4,30.5,29.93,WSW,240,1.0,5.0,73,0.00,,---,0.00,0.00,VWS V14.01,2013-02-16 05:15:00,
2013-02-16 00:20:00,38.2,31.0,29.93,NW,316,0.0,5.0,75,0.00,,---,0.00,0.00,VWS V14.01,2013-02-16 05:20:00,
2013-02-16 00:23:00,38.0,31.1,29.93,NW,316,0.0,0.0,76,0.00,,---,0.00,0.00,VWS V14.01,2013-02-16 05:23:00,
2013-02-16 00:25:00,37.7,30.8,29.93,NW,317,0.0,0.0,76,0.00,,---,0.00,0.00,VWS V14.01,2013-02-16 05:25:00,
2013-02-16 00:28:00,37.4,30.9,29.94,NW,317,0.0,0.0,77,0.00,,---,0.00,0.00,VWS V14.01,2013-02-16 05:28:00,
2013-02-16 00:30:00,37.3,31.1,29.94,West,269,0.0,3.0,78,0.00,,---,0.00,0.00,VWS V14.01,2013-02-16 05:30:00,
2013-02-16 00:31:00,37.4,31.2,29.94,NNW,329,2.0,4.0,78,0.00,,---,0.00,0.00,VWS V14.01,2013-02-16 05:31:00,
2013-02-16 00:33:00,37.3,31.1,29.94,NNW,330,0.0,0.0,78,0.00,,---,0.00,0.00,VWS V14.01,2013-02-16 05:33:00,
2013-02-16 00:35:00,37.4,31.5,29.94,NNW,333,2.0,3.0,79,0.00,,---,0.00,0.00,VWS V14.01,2013-02-16 05:35:00,
2013-02-16 00:36:00,37.4,31.5,29.94,West,259,1.0,3.0,79,0.00,,---,0.00,0.00,VWS V14.01,2013-02-16 05:36:00,
2013-02-16 00:38:00,37.4,31.5,29.94,North,5,0.0,4.0,79,0.00,,---,0.00,0.00,VWS V14.01,2013-02-16 05:38:00,
2013-02-16 00:40:00,37.3,31.7,29.94,NNW,334,0.0,4.0,80,0.00,,---,0.00,0.00,VWS V14.01,2013-02-16 05:40:00,
2013-02-16 00:41:00,37.3,31.7,29.94,NNW,334,0.0,4.0,80,0.00,,---,0.00,0.00,VWS V14.01,2013-02-16 05:41:00,
2013-02-16 00:43:00,37.2,31.6,29.94,NW,321,0.0,2.0,80,0.00,,---,0.00,0.00,VWS V14.01,2013-02-16 05:43:00,
2013-02-16 00:45:00,37.1,31.8,29.93,North,355,3.0,3.0,81,0.00,,---,0.00,0.00,VWS V14.01,2013-02-16 05:45:00,
2013-02-16 00:46:00,37.0,31.7,29.93,North,360,0.0,3.0,81,0.00,,---,0.00,0.00,VWS V14.01,2013-02-16 05:46:00,
2013-02-16 00:48:00,36.9,31.9,29.94,North,360,0.0,3.0,82,0.00,,---,0.00,0.00,VWS V14.01,2013-02-16 05:48:00,
2013-02-16 00:50:00,36.8,31.8,29.94,NNW,333,1.0,3.0,82,0.00,,---,0.00,0.00,VWS V14.01,2013-02-16 05:50:00,
2013-02-16 00:51:00,36.8,31.8,29.94,WSW,243,0.0,3.0,82,0.00,,---,0.00,0.00,VWS V14.01,2013-02-16 05:51:00,
2013-02-16 00:54:00,36.6,31.9,29.94,NNW,330,0.0,2.0,83,0.00,,---,0.00,0.00,VWS V14.01,2013-02-16 05:54:00,
2013-02-16 00:55:00,36.5,32.1,29.94,WNW,302,0.0,2.0,84,0.00,,---,0.00,0.00,VWS V14.01,2013-02-16 05:55:00,
2013-02-16 00:56:00,36.5,32.1,29.95,WNW,303,0.0,2.0,84,0.00,,---,0.00,0.00,VWS V14.01,2013-02-16 05:56:00,
2013-02-16 00:59:00,36.4,32.0,29.95,WNW,303,0.0,2.0,84,0.00,,---,0.00,0.00,VWS V14.01,2013-02-16 05:59:00,
2013-02-16 01:00:00,36.3,32.2,29.95,WNW,303,0.0,2.0,85,0.00,,---,0.00,0.00,VWS V14.01,2013-02-16 06:00:00,
2013-02-16 01:01:00,36.2,32.1,29.95,NNW,341,0.0,2.0,85,0.00,,---,0.00,0.00,VWS V14.01,2013-02-16 06:01:00,
2013-02-16 01:02:00,36.2,32.1,29.94,NNW,341,0.0,0.0,85,0.00,,---,0.00,0.00,VWS V14.01,2013-02-16 06:02:00,
2013-02-16 01:04:00,36.1,32.0,29.94,SW,230,0.0,1.0,85,0.00,,---,0.00,0.00,VWS V14.01,2013-02-16 06:04:00,
2013-02-16 01:05:00,36.1,32.0,29.94,WNW,289,1.0,3.0,85,0.00,,---,0.00,0.00,VWS V14.01,2013-02-16 06:05:00,
2013-02-16 01:06:00,36.1,32.3,29.94,WNW,289,0.0,3.0,86,0.00,,---,0.00,0.00,VWS V14.01,2013-02-16 06:06:00,
2013-02-16 01:07:00,36.1,32.3,29.94,WNW,289,0.0,3.0,86,0.00,,---,0.00,0.00,VWS V14.01,2013-02-16 06:07:00,
2013-02-16 01:09:00,35.9,32.1,29.94,West,271,0.0,3.0,86,0.00,,---,0.00,0.00,VWS V14.01,2013-02-16 06:09:00,
2013-02-16 01:10:00,35.8,32.3,29.94,West,270,0.0,3.0,87,0.00,,---,0.00,0.00,VWS V14.01,2013-02-16 06:10:00,
2013-02-16 01:12:00,35.7,32.2,29.94,West,271,0.0,0.0,87,0.00,,---,0.00,0.00,VWS V14.01,2013-02-16 06:12:00,
2013-02-16 01:14:00,35.6,32.1,29.94,NW,319,0.0,1.0,87,0.00,,---,0.00,0.00,VWS V14.01,2013-02-16 06:14:00,
2013-02-16 01:16:00,35.5,32.3,29.94,NW,325,0.0,1.0,88,0.00,,---,0.00,0.00,VWS V14.01,2013-02-16 06:16:00,
2013-02-16 01:17:00,35.4,32.2,29.94,SSW,205,1.0,1.0,88,0.00,,---,0.00,0.00,VWS V14.01,2013-02-16 06:17:00,
2013-02-16 01:19:00,35.3,32.1,29.95,SSW,212,0.0,1.0,88,0.00,,---,0.00,0.00,VWS V14.01,2013-02-16 06:19:00,
2013-02-16 01:21:00,35.3,32.4,29.95,NW,323,0.0,2.0,89,0.00,,---,0.00,0.00,VWS V14.01,2013-02-16 06:21:00,
2013-02-16 01:22:00,35.2,32.3,29.94,NW,323,0.0,0.0,89,0.00,,---,0.00,0.00,VWS V14.01,2013-02-16 06:22:00,
2013-02-16 01:24:00,35.1,32.2,29.94,NNW,327,2.0,2.0,89,0.00,,---,0.00,0.00,VWS V14.01,2013-02-16 06:24:00,
2013-02-16 01:26:00,35.0,32.1,29.94,NW,315,1.0,2.0,89,0.00,,---,0.00,0.00,VWS V14.01,2013-02-16 06:26:00,
2013-02-16 01:27:00,35.0,32.1,29.94,NW,314,0.0,2.0,89,0.00,,---,0.00,0.00,VWS V14.01,2013-02-16 06:27:00,
2013-02-16 01:29:00,34.9,32.3,29.94,NW,313,0.0,2.0,90,0.00,,---,0.00,0.00,VWS V14.01,2013-02-16 06:29:00,
2013-02-16 01:31:00,34.8,32.2,29.95,NNW,337,0.0,2.0,90,0.00,,---,0.00,0.00,VWS V14.01,2013-02-16 06:31:00,
2013-02-16 01:32:00,34.8,32.2,29.95,NNW,334,0.0,0.0,90,0.00,,---,0.00,0.00,VWS V14.01,2013-02-16 06:32:00,
2013-02-16 01:34:00,34.7,32.1,29.95,NW,321,1.0,2.0,90,0.00,,---,0.00,0.00,VWS V14.01,2013-02-16 06:34:00,
2013-02-16 01:36:00,34.7,32.1,29.95,NW,321,0.0,2.0,90,0.00,,---,0.00,0.00,VWS V14.01,2013-02-16 06:36:00,
2013-02-16 01:37:00,34.6,32.0,29.95,NW,321,0.0,2.0,90,0.00,,---,0.00,0.00,VWS V14.01,2013-02-16 06:37:00,
2013-02-16 01:39:00,34.6,32.2,29.95,NW,322,1.0,2.0,91,0.00,,---,0.00,0.00,VWS V14.01,2013-02-16 06:39:00,
2013-02-16 01:41:00,34.5,32.2,29.95,NNE,28,0.0,3.0,91,0.00,,---,0.00,0.00,VWS V14.01,2013-02-16 06:41:00,
2013-02-16 01:42:00,34.5,32.2,29.95,NE,46,1.0,2.0,91,0.00,,---,0.00,0.00,VWS V14.01,2013-02-16 06:42:00,
2013-02-16 01:44:00,34.4,32.0,29.95,WSW,250,0.0,2.0,91,0.00,,---,0.00,0.00,VWS V14.01,2013-02-16 06:44:00,
2013-02-16 01:46:00,34.3,32.0,29.95,WNW,285,0.0,2.0,91,0.00,,---,0.00,0.00,VWS V14.01,2013-02-16 06:46:00,
2013-02-16 01:47:00,34.3,32.0,29.95,NNW,340,0.0,2.0,91,0.00,,---,0.00,0.00,VWS V14.01,2013-02-16 06:47:00,
2013-02-16 01:50:00,34.2,31.9,29.95,West,280,1.0,2.0,91,0.00,,---,0.00,0.00,VWS V14.01,2013-02-16 06:50:00,
2013-02-16 01:51:00,34.1,31.8,29.95,NNW,348,2.0,2.0,91,0.00,,---,0.00,0.00,VWS V14.01,2013-02-16 06:51:00,
2013-02-16 01:52:00,34.1,31.8,29.95,North,360,0.0,2.0,91,0.00,,---,0.00,0.00,VWS V14.01,2013-02-16 06:52:00,
2013-02-16 01:53:00,34.1,31.8,29.95,North,360,0.0,2.0,91,0.00,,---,0.00,0.00,VWS V14.01,2013-02-16 06:53:00,
2013-02-16 01:55:00,34.0,31.6,29.95,North,360,0.0,2.0,91,0.00,,---,0.00,0.00,VWS V14.01,2013-02-16 06:55:00,
2013-02-16 01:57:00,33.9,31.6,29.95,NNW,334,2.0,3.0,91,0.00,,---,0.00,0.00,VWS V14.01,2013-02-16 06:57:00,
2013-02-16 01:58:00,33.9,31.6,29.95,NNW,335,0.0,3.0,91,0.00,,---,0.00,0.00,VWS V14.01,2013-02-16 06:58:00,
2013-02-16 02:00:00,33.8,31.5,29.95,NNW,335,0.0,3.0,91,0.00,,---,0.00,0.00,VWS V14.01,2013-02-16 07:00:00,
2013-02-16 02:02:00,33.7,31.4,29.95,NNW,335,1.0,3.0,91,0.00,,---,0.00,0.00,VWS V14.01,2013-02-16 07:02:00,
2013-02-16 02:03:00,33.7,31.4,29.95,NNW,335,0.0,1.0,91,0.00,,---,0.00,0.00,VWS V14.01,2013-02-16 07:03:00,
2013-02-16 02:05:00,33.6,31.3,29.95,NNW,335,0.0,1.0,91,0.00,,---,0.00,0.00,VWS V14.01,2013-02-16 07:05:00,
2013-02-16 02:07:00,33.5,31.2,29.95,NNW,348,1.0,2.0,91,0.00,,---,0.00,0.00,VWS V14.01,2013-02-16 07:07:00,
2013-02-16 02:08:00,33.5,31.4,29.95,NNW,348,0.0,2.0,92,0.00,,---,0.00,0.00,VWS V14.01,2013-02-16 07:08:00,
2013-02-16 02:10:00,33.4,31.3,29.94,North,355,0.0,2.0,92,0.00,,---,0.00,0.00,VWS V14.01,2013-02-16 07:10:00,
2013-02-16 02:12:00,33.4,31.3,29.94,North,349,2.0,3.0,92,0.00,,---,0.00,0.00,VWS V14.01,2013-02-16 07:12:00,
2013-02-16 02:13:00,33.4,31.3,29.94,NNW,346,1.0,3.0,92,0.00,,---,0.00,0.00,VWS V14.01,2013-02-16 07:13:00,
2013-02-16 02:15:00,33.3,31.2,29.94,North,5,0.0,3.0,92,0.00,,---,0.00,0.00,VWS V14.01,2013-02-16 07:15:00,
2013-02-16 02:17:00,33.3,31.2,29.94,North,355,0.0,3.0,92,0.00,,---,0.00,0.00,VWS V14.01,2013-02-16 07:17:00,
2013-02-16 02:18:00,33.2,31.1,29.94,North,355,4.0,4.0,92,0.00,,---,0.00,0.00,VWS V14.01,2013-02-16 07:18:00,
2013-02-16 02:20:00,33.2,31.1,29.93,North,9,2.0,4.0,92,0.00,,---,0.00,0.00,VWS V14.01,2013-02-16 07:20:00,
2013-02-16 02:22:00,33.1,31.0,29.93,NNE,21,2.0,2.0,92,0.00,,---,0.00,0.00,VWS V14.01,2013-02-16 07:22:00,
2013-02-16 02:23:00,33.1,31.0,29.93,NNW,348,0.0,2.0,92,0.00,,---,0.00,0.00,VWS V14.01,2013-02-16 07:23:00,
2013-02-16 02:25:00,33.0,31.2,29.94,North,10,0.0,2.0,93,0.00,,---,0.00,0.00,VWS V14.01,2013-02-16 07:25:00,
2013-02-16 02:27:00,33.0,31.2,29.93,North,5,2.0,3.0,93,0.00,,---,0.00,0.00,VWS V14.01,2013-02-16 07:27:00,
2013-02-16 02:28:00,33.0,31.2,29.93,North,360,3.0,3.0,93,0.00,,---,0.00,0.00,VWS V14.01,2013-02-16 07:28:00,
2013-02-16 02:30:00,32.9,31.1,29.93,NNE,17,1.0,3.0,93,0.00,,---,0.00,0.00,VWS V14.01,2013-02-16 07:30:00,
2013-02-16 02:32:00,32.9,31.1,29.93,NNE,22,1.0,2.0,93,0.00,,---,0.00,0.00,VWS V14.01,2013-02-16 07:32:00,
2013-02-16 02:33:00,32.9,31.1,29.93,NNW,343,1.0,3.0,93,0.00,,---,0.00,0.00,VWS V14.01,2013-02-16 07:33:00,
2013-02-16 02:36:00,32.9,31.1,29.93,North,9,2.0,4.0,93,0.00,,---,0.00,0.00,VWS V14.01,2013-02-16 07:36:00,
2013-02-16 02:37:00,32.8,31.0,29.93,North,355,1.0,4.0,93,0.00,,---,0.00,0.00,VWS V14.01,2013-02-16 07:37:00,
2013-02-16 02:38:00,32.8,31.0,29.93,North,355,0.0,4.0,93,0.00,,---,0.00,0.00,VWS V14.01,2013-02-16 07:38:00,
2013-02-16 02:41:00,32.8,31.0,29.93,NNE,12,0.0,4.0,93,0.00,,---,0.00,0.00,VWS V14.01,2013-02-16 07:41:00,
2013-02-16 02:42:00,32.7,30.9,29.93,NNE,23,2.0,2.0,93,0.00,,---,0.00,0.00,VWS V14.01,2013-02-16 07:42:00,
2013-02-16 02:43:00,32.7,30.9,29.93,NNE,17,0.0,3.0,93,0.00,,---,0.00,0.00,VWS V14.01,2013-02-16 07:43:00,
2013-02-16 02:44:00,32.7,30.9,29.93,NNE,16,0.0,3.0,93,0.00,,---,0.00,0.00,VWS V14.01,2013-02-16 07:44:00,
2013-02-16 02:46:00,32.7,30.9,29.93,North,9,1.0,3.0,93,0.00,,---,0.00,0.00,VWS V14.01,2013-02-16 07:46:00,
2013-02-16 02:47:00,32.6,30.8,29.93,North,360,3.0,3.0,93,0.00,,---,0.00,0.00,VWS V14.01,2013-02-16 07:47:00,
2013-02-16 02:49:00,32.6,30.8,29.93,NNE,26,1.0,3.0,93,0.00,,---,0.00,0.00,VWS V14.01,2013-02-16 07:49:00,
2013-02-16 02:51:00,32.6,30.8,29.93,NNE,22,0.0,3.0,93,0.00,,---,0.00,0.00,VWS V14.01,2013-02-16 07:51:00,
2013-02-16 02:52:00,32.6,30.8,29.93,NNE,20,0.0,0.0,93,0.00,,---,0.00,0.00,VWS V14.01,2013-02-16 07:52:00,
2013-02-16 02:54:00,32.6,30.8,29.93,NNE,20,0.0,1.0,93,0.00,,---,0.00,0.00,VWS V14.01,2013-02-16 07:54:00,
2013-02-16 02:56:00,32.6,30.8,29.93,NE,44,0.0,2.0,93,0.00,,---,0.00,0.00,VWS V14.01,2013-02-16 07:56:00,
2013-02-16 02:58:00,32.5,30.7,29.93,NE,44,0.0,2.0,93,0.00,,---,0.00,0.00,VWS V14.01,2013-02-16 07:58:00,
2013-02-16 02:59:00,32.5,30.7,29.93,North,5,0.0,3.0,93,0.00,,---,0.00,0.00,VWS V14.01,2013-02-16 07:59:00,
2013-02-16 03:01:00,32.5,30.4,29.93,North,360,0.0,3.0,92,0.00,,---,0.00,0.00,VWS V14.01,2013-02-16 08:01:00,
2013-02-16 03:03:00,32.5,30.4,29.93,North,360,0.0,2.0,92,0.00,,---,0.00,0.00,VWS V14.01,2013-02-16 08:03:00,
2013-02-16 03:04:00,32.5,30.7,29.93,NE,55,0.0,2.0,93,0.00,,---,0.00,0.00,VWS V14.01,2013-02-16 08:04:00,
2013-02-16 03:06:00,32.4,30.3,29.93,North,9,0.0,2.0,92,0.00,,---,0.00,0.00,VWS V14.01,2013-02-16 08:06:00,
2013-02-16 03:08:00,32.4,30.6,29.93,NNW,336,0.0,3.0,93,0.00,,---,0.00,0.00,VWS V14.01,2013-02-16 08:08:00,
2013-02-16 03:09:00,32.4,30.6,29.93,NNW,346,1.0,3.0,93,0.00,,---,0.00,0.00,VWS V14.01,2013-02-16 08:09:00,
2013-02-16 03:11:00,32.3,30.5,29.93,North,5,2.0,3.0,93,0.00,,---,0.00,0.00,VWS V14.01,2013-02-16 08:11:00,
2013-02-16 03:13:00,32.3,30.5,29.93,North,5,0.0,1.0,93,0.00,,---,0.00,0.00,VWS V14.01,2013-02-16 08:13:00,
2013-02-16 03:14:00,32.3,30.5,29.93,North,5,0.0,1.0,93,0.00,,---,0.00,0.00,VWS V14.01,2013-02-16 08:14:00,
2013-02-16 03:17:00,32.3,30.5,29.93,North,5,1.0,2.0,93,0.00,,---,0.00,0.00,VWS V14.01,2013-02-16 08:17:00,
2013-02-16 03:18:00,32.3,30.5,29.93,North,5,0.0,2.0,93,0.00,,---,0.00,0.00,VWS V14.01,2013-02-16 08:18:00,
2013-02-16 03:19:00,32.2,30.4,29.93,North,5,0.0,2.0,93,0.00,,---,0.00,0.00,VWS V14.01,2013-02-16 08:19:00,
2013-02-16 03:22:00,32.2,30.4,29.93,West,275,0.0,2.0,93,0.00,,---,0.00,0.00,VWS V14.01,2013-02-16 08:22:00,
2013-02-16 03:23:00,32.2,30.4,29.93,NNE,32,0.0,2.0,93,0.00,,---,0.00,0.00,VWS V14.01,2013-02-16 08:23:00,
2013-02-16 03:24:00,32.2,30.4,29.93,NNW,340,0.0,3.0,93,0.00,,---,0.00,0.00,VWS V14.01,2013-02-16 08:24:00,
2013-02-16 03:27:00,32.1,30.3,29.93,NNW,340,0.0,3.0,93,0.00,,---,0.00,0.00,VWS V14.01,2013-02-16 08:27:00,
2013-02-16 03:28:00,32.1,30.3,29.92,NNW,340,1.0,3.0,93,0.00,,---,0.00,0.00,VWS V14.01,2013-02-16 08:28:00,
2013-02-16 03:29:00,32.1,30.3,29.92,NNW,344,2.0,3.0,93,0.00,,---,0.00,0.00,VWS V14.01,2013-02-16 08:29:00,
2013-02-16 03:32:00,32.0,30.2,29.92,NNW,344,1.0,1.0,93,0.00,,---,0.00,0.00,VWS V14.01,2013-02-16 08:32:00,
2013-02-16 03:33:00,32.0,30.2,29.92,North,360,1.0,2.0,93,0.00,,---,0.00,0.00,VWS V14.01,2013-02-16 08:33:00,
2013-02-16 03:34:00,32.0,30.2,29.92,North,360,0.0,2.0,93,0.00,,---,0.00,0.00,VWS V14.01,2013-02-16 08:34:00,
2013-02-16 03:37:00,32.0,30.2,29.92,North,360,0.0,2.0,93,0.00,,---,0.00,0.00,VWS V14.01,2013-02-16 08:37:00,
2013-02-16 03:38:00,32.0,30.5,29.92,North,360,1.0,2.0,94,0.00,,---,0.00,0.00,VWS V14.01,2013-02-16 08:38:00,
2013-02-16 03:39:00,32.0,30.5,29.92,North,360,0.0,2.0,94,0.00,,---,0.00,0.00,VWS V14.01,2013-02-16 08:39:00,
2013-02-16 03:42:00,31.9,30.4,29.92,NNE,16,0.0,0.0,94,0.00,,---,0.00,0.00,VWS V14.01,2013-02-16 08:42:00,
2013-02-16 03:43:00,31.9,30.4,29.92,NNE,16,0.0,0.0,94,0.00,,---,0.00,0.00,VWS V14.01,2013-02-16 08:43:00,
2013-02-16 03:44:00,31.9,30.4,29.92,NNE,16,0.0,0.0,94,0.00,,---,0.00,0.00,VWS V14.01,2013-02-16 08:44:00,
2013-02-16 03:45:00,31.9,30.4,29.92,NNE,16,0.0,0.0,94,0.00,,---,0.00,0.00,VWS V14.01,2013-02-16 08:45:00,
2013-02-16 03:47:00,31.9,30.4,29.92,NNE,16,0.0,1.0,94,0.00,,---,0.00,0.00,VWS V14.01,2013-02-16 08:47:00,
2013-02-16 03:48:00,31.9,30.4,29.92,North,360,0.0,1.0,94,0.00,,---,0.00,0.00,VWS V14.01,2013-02-16 08:48:00,
2013-02-16 03:49:00,31.9,30.4,29.92,North,360,0.0,1.0,94,0.00,,---,0.00,0.00,VWS V14.01,2013-02-16 08:49:00,
2013-02-16 03:50:00,31.9,30.4,29.92,North,360,0.0,1.0,94,0.00,,---,0.00,0.00,VWS V14.01,2013-02-16 08:50:00,
2013-02-16 03:52:00,31.8,30.3,29.92,North,5,1.0,1.0,94,0.00,,---,0.00,0.00,VWS V14.01,2013-02-16 08:52:00,
2013-02-16 03:54:00,31.8,30.3,29.93,North,360,0.0,1.0,94,0.00,,---,0.00,0.00,VWS V14.01,2013-02-16 08:54:00,
2013-02-16 03:55:00,31.8,30.3,29.93,NNE,17,0.0,1.0,94,0.00,,---,0.00,0.00,VWS V14.01,2013-02-16 08:55:00,
2013-02-16 03:57:00,31.8,30.3,29.93,NE,40,0.0,1.0,94,0.00,,---,0.00,0.00,VWS V14.01,2013-02-16 08:57:00,
2013-02-16 03:59:00,31.8,30.3,29.93,NNE,24,1.0,2.0,94,0.00,,---,0.00,0.00,VWS V14.01,2013-02-16 08:59:00,
2013-02-16 04:00:00,31.8,30.3,29.93,North,360,0.0,2.0,94,0.00,,---,0.00,0.00,VWS V14.01,2013-02-16 09:00:00,
2013-02-16 04:02:00,31.8,30.0,29.93,NE,34,0.0,0.0,93,0.00,,---,0.00,0.00,VWS V14.01,2013-02-16 09:02:00,
2013-02-16 04:04:00,31.7,29.9,29.92,NNE,29,1.0,1.0,93,0.00,,---,0.00,0.00,VWS V14.01,2013-02-16 09:04:00,
2013-02-16 04:05:00,31.7,29.9,29.92,NNE,29,0.0,1.0,93,0.00,,---,0.00,0.00,VWS V14.01,2013-02-16 09:05:00,
2013-02-16 04:07:00,31.7,29.9,29.93,NNE,22,0.0,1.0,93,0.00,,---,0.00,0.00,VWS V14.01,2013-02-16 09:07:00,
2013-02-16 04:09:00,31.7,29.9,29.92,NNE,22,0.0,1.0,93,0.00,,---,0.00,0.00,VWS V14.01,2013-02-16 09:09:00,
2013-02-16 04:10:00,31.7,30.2,29.92,NNE,22,0.0,1.0,94,0.00,,---,0.00,0.00,VWS V14.01,2013-02-16 09:10:00,
2013-02-16 04:12:00,31.7,30.2,29.92,NNE,19,0.0,0.0,94,0.00,,---,0.00,0.00,VWS V14.01,2013-02-16 09:12:00,
2013-02-16 04:14:00,31.7,30.2,29.92,NNE,19,0.0,0.0,94,0.00,,---,0.00,0.00,VWS V14.01,2013-02-16 09:14:00,
2013-02-16 04:15:00,31.7,30.2,29.92,NNE,19,0.0,0.0,94,0.00,,---,0.00,0.00,VWS V14.01,2013-02-16 09:15:00,
2013-02-16 04:18:00,31.6,30.1,29.93,NNE,19,0.0,0.0,94,0.00,,---,0.00,0.00,VWS V14.01,2013-02-16 09:18:00,
2013-02-16 04:19:00,31.6,30.1,29.93,NNE,19,0.0,1.0,94,0.00,,---,0.00,0.00,VWS V14.01,2013-02-16 09:19:00,
2013-02-16 04:20:00,31.6,30.1,29.93,NNE,19,0.0,1.0,94,0.00,,---,0.00,0.00,VWS V14.01,2013-02-16 09:20:00,
2013-02-16 04:23:00,31.6,30.1,29.93,NNE,25,0.0,1.0,94,0.00,,---,0.00,0.00,VWS V14.01,2013-02-16 09:23:00,
2013-02-16 04:24:00,31.6,30.1,29.93,NNE,25,0.0,1.0,94,0.00,,---,0.00,0.00,VWS V14.01,2013-02-16 09:24:00,
2013-02-16 04:25:00,31.6,30.1,29.93,NNE,25,0.0,1.0,94,0.00,,---,0.00,0.00,VWS V14.01,2013-02-16 09:25:00,
2013-02-16 04:28:00,31.6,30.1,29.93,NNE,25,0.0,1.0,94,0.00,,---,0.00,0.00,VWS V14.01,2013-02-16 09:28:00,
2013-02-16 04:29:00,31.6,30.1,29.92,NNE,25,0.0,1.0,94,0.00,,---,0.00,0.00,VWS V14.01,2013-02-16 09:29:00,
2013-02-16 04:30:00,31.6,30.1,29.93,NNE,33,0.0,1.0,94,0.00,,---,0.00,0.00,VWS V14.01,2013-02-16 09:30:00,
2013-02-16 04:33:00,31.5,30.0,29.93,NE,38,0.0,1.0,94,0.00,,---,0.00,0.00,VWS V14.01,2013-02-16 09:33:00,
2013-02-16 04:34:00,31.5,30.0,29.92,NE,37,0.0,1.0,94,0.00,,---,0.00,0.00,VWS V14.01,2013-02-16 09:34:00,
2013-02-16 04:35:00,31.5,30.0,29.93,NE,37,0.0,1.0,94,0.00,,---,0.00,0.00,VWS V14.01,2013-02-16 09:35:00,
2013-02-16 04:38:00,31.5,30.0,29.92,North,351,0.0,2.0,94,0.00,,---,0.00,0.00,VWS V14.01,2013-02-16 09:38:00,
2013-02-16 04:39:00,31.5,30.0,29.93,North,351,0.0,2.0,94,0.00,,---,0.00,0.00,VWS V14.01,2013-02-16 09:39:00,
2013-02-16 04:40:00,31.5,30.0,29.93,NNW,342,1.0,2.0,94,0.00,,---,0.00,0.00,VWS V14.01,2013-02-16 09:40:00,
2013-02-16 04:43:00,31.5,30.0,29.93,NNW,342,0.0,1.0,94,0.00,,---,0.00,0.00,VWS V14.01,2013-02-16 09:43:00,
2013-02-16 04:45:00,31.5,30.0,29.93,NNW,342,0.0,1.0,94,0.00,,---,0.00,0.00,VWS V14.01,2013-02-16 09:45:00,
2013-02-16 04:48:00,31.5,29.7,29.93,NNW,342,0.0,1.0,93,0.00,,---,0.00,0.00,VWS V14.01,2013-02-16 09:48:00,
2013-02-16 04:50:00,31.5,29.7,29.93,NNW,342,0.0,1.0,93,0.00,,---,0.00,0.00,VWS V14.01,2013-02-16 09:50:00,
2013-02-16 04:53:00,31.4,29.9,29.93,NNW,342,0.0,0.0,94,0.00,,---,0.00,0.00,VWS V14.01,2013-02-16 09:53:00,
2013-02-16 04:55:00,31.4,29.9,29.92,NNW,342,0.0,0.0,94,0.00,,---,0.00,0.00,VWS V14.01,2013-02-16 09:55:00,
2013-02-16 04:58:00,31.4,29.6,29.92,NNW,346,1.0,1.0,93,0.00,,---,0.00,0.00,VWS V14.01,2013-02-16 09:58:00,
2013-02-16 05:00:00,31.4,29.6,29.92,NNW,346,0.0,1.0,93,0.00,,---,0.00,0.00,VWS V14.01,2013-02-16 10:00:00,
2013-02-16 05:03:00,31.4,29.6,29.92,NNW,346,0.0,1.0,93,0.00,,---,0.00,0.00,VWS V14.01,2013-02-16 10:03:00,
2013-02-16 05:05:00,31.4,29.6,29.92,NNW,346,1.0,1.0,93,0.00,,---,0.00,0.00,VWS V14.01,2013-02-16 10:05:00,
2013-02-16 05:06:00,31.4,29.6,29.92,NNW,346,0.0,1.0,93,0.00,,---,0.00,0.00,VWS V14.01,2013-02-16 10:06:00,
2013-02-16 05:09:00,31.3,29.5,29.92,NE,34,0.0,1.0,93,0.00,,---,0.00,0.00,VWS V14.01,2013-02-16 10:09:00,
2013-02-16 05:10:00,31.3,29.5,29.92,North,5,1.0,1.0,93,0.00,,---,0.00,0.00,VWS V14.01,2013-02-16 10:10:00,
2013-02-16 05:11:00,31.3,29.5,29.91,North,5,0.0,2.0,93,0.00,,---,0.00,0.00,VWS V14.01,2013-02-16 10:11:00,
2013-02-16 05:14:00,31.3,29.5,29.91,North,5,0.0,1.0,93,0.00,,---,0.00,0.00,VWS V14.01,2013-02-16 10:14:00,
2013-02-16 05:15:00,31.3,29.5,29.91,North,9,0.0,1.0,93,0.00,,---,0.00,0.00,VWS V14.01,2013-02-16 10:15:00,
2013-02-16 05:16:00,31.3,29.5,29.91,North,9,0.0,1.0,93,0.00,,---,0.00,0.00,VWS V14.01,2013-02-16 10:16:00,
2013-02-16 05:19:00,31.3,29.5,29.92,North,9,0.0,1.0,93,0.00,,---,0.00,0.00,VWS V14.01,2013-02-16 10:19:00,
2013-02-16 05:20:00,31.3,29.5,29.92,North,9,0.0,1.0,93,0.00,,---,0.00,0.00,VWS V14.01,2013-02-16 10:20:00,
2013-02-16 05:21:00,31.2,29.4,29.92,North,9,0.0,1.0,93,0.00,,---,0.00,0.00,VWS V14.01,2013-02-16 10:21:00,
2013-02-16 05:24:00,31.3,29.5,29.92,North,9,0.0,0.0,93,0.00,,---,0.00,0.00,VWS V14.01,2013-02-16 10:24:00,
2013-02-16 05:25:00,31.2,29.4,29.92,North,9,0.0,0.0,93,0.00,,---,0.00,0.00,VWS V14.01,2013-02-16 10:25:00,
2013-02-16 05:27:00,31.2,29.4,29.92,North,9,0.0,0.0,93,0.00,,---,0.00,0.00,VWS V14.01,2013-02-16 10:27:00,
2013-02-16 05:29:00,31.2,29.4,29.93,North,9,0.0,0.0,93,0.00,,---,0.00,0.00,VWS V14.01,2013-02-16 10:29:00,
2013-02-16 05:30:00,31.2,29.4,29.93,North,9,0.0,0.0,93,0.00,,---,0.00,0.00,VWS V14.01,2013-02-16 10:30:00,
2013-02-16 05:32:00,31.2,29.4,29.93,North,9,0.0,0.0,93,0.00,,---,0.00,0.00,VWS V14.01,2013-02-16 10:32:00,
2013-02-16 05:34:00,31.2,29.4,29.93,North,11,0.0,2.0,93,0.00,,---,0.00,0.00,VWS V14.01,2013-02-16 10:34:00,
2013-02-16 05:35:00,31.2,29.4,29.93,North,11,0.0,2.0,93,0.00,,---,0.00,0.00,VWS V14.01,2013-02-16 10:35:00,
2013-02-16 05:37:00,31.1,29.3,29.93,North,11,1.0,2.0,93,0.00,,---,0.00,0.00,VWS V14.01,2013-02-16 10:37:00,
2013-02-16 05:39:00,31.1,29.3,29.93,North,11,0.0,2.0,93,0.00,,---,0.00,0.00,VWS V14.01,2013-02-16 10:39:00,
2013-02-16 05:40:00,31.1,29.3,29.93,North,11,0.0,2.0,93,0.00,,---,0.00,0.00,VWS V14.01,2013-02-16 10:40:00,
2013-02-16 05:42:00,31.1,29.3,29.93,North,11,0.0,0.0,93,0.00,,---,0.00,0.00,VWS V14.01,2013-02-16 10:42:00,
2013-02-16 05:44:00,31.1,29.3,29.93,North,11,0.0,0.0,93,0.00,,---,0.00,0.00,VWS V14.01,2013-02-16 10:44:00,
2013-02-16 05:45:00,31.1,29.3,29.93,North,11,0.0,2.0,93,0.00,,---,0.00,0.00,VWS V14.01,2013-02-16 10:45:00,
2013-02-16 05:46:00,31.1,29.3,29.93,North,11,0.0,2.0,93,0.00,,---,0.00,0.00,VWS V14.01,2013-02-16 10:46:00,
2013-02-16 05:47:00,31.0,29.0,29.93,North,11,0.0,2.0,92,0.00,,---,0.00,0.00,VWS V14.01,2013-02-16 10:47:00,
2013-02-16 05:49:00,31.0,29.0,29.93,NNE,21,0.0,2.0,92,0.00,,---,0.00,0.00,VWS V14.01,2013-02-16 10:49:00,
2013-02-16 05:51:00,31.0,29.0,29.93,NNE,21,0.0,2.0,92,0.00,,---,0.00,0.00,VWS V14.01,2013-02-16 10:51:00,
2013-02-16 05:52:00,31.0,29.0,29.93,NNE,21,0.0,0.0,92,0.00,,---,0.00,0.00,VWS V14.01,2013-02-16 10:52:00,
2013-02-16 05:54:00,31.0,29.0,29.93,West,263,1.0,1.0,92,0.00,,---,0.00,0.00,VWS V14.01,2013-02-16 10:54:00,
2013-02-16 05:56:00,31.0,29.0,29.94,NNW,342,0.0,1.0,92,0.00,,---,0.00,0.00,VWS V14.01,2013-02-16 10:56:00,
2013-02-16 05:57:00,31.0,29.0,29.94,NNW,340,0.0,2.0,92,0.00,,---,0.00,0.00,VWS V14.01,2013-02-16 10:57:00,
2013-02-16 06:00:00,31.0,29.0,29.94,NNW,340,0.0,2.0,92,0.00,,---,0.00,0.00,VWS V14.01,2013-02-16 11:00:00,
2013-02-16 06:01:00,31.0,29.0,29.94,NNW,342,0.0,2.0,92,0.00,,---,0.00,0.00,VWS V14.01,2013-02-16 11:01:00,
2013-02-16 06:02:00,30.9,28.9,29.94,WNW,296,0.0,1.0,92,0.00,,---,0.00,0.00,VWS V14.01,2013-02-16 11:02:00,
2013-02-16 06:05:00,31.0,29.0,29.94,WNW,297,0.0,1.0,92,0.00,,---,0.00,0.00,VWS V14.01,2013-02-16 11:05:00,
2013-02-16 06:06:00,30.9,28.9,29.94,NNW,327,0.0,1.0,92,0.00,,---,0.00,0.00,VWS V14.01,2013-02-16 11:06:00,
2013-02-16 06:07:00,30.9,28.9,29.94,NNW,335,0.0,1.0,92,0.00,,---,0.00,0.00,VWS V14.01,2013-02-16 11:07:00,
2013-02-16 06:10:00,31.0,29.0,29.94,NNW,335,0.0,1.0,92,0.00,,---,0.00,0.00,VWS V14.01,2013-02-16 11:10:00,
2013-02-16 06:11:00,30.9,28.6,29.94,NNW,335,0.0,1.0,91,0.00,,---,0.00,0.00,VWS V14.01,2013-02-16 11:11:00,
2013-02-16 06:12:00,30.9,28.9,29.94,NNW,335,0.0,0.0,92,0.00,,---,0.00,0.00,VWS V14.01,2013-02-16 11:12:00,
2013-02-16 06:15:00,30.9,28.9,29.93,NNW,335,0.0,0.0,92,0.00,,---,0.00,0.00,VWS V14.01,2013-02-16 11:15:00,
2013-02-16 06:16:00,30.9,28.9,29.93,NNE,14,0.0,1.0,92,0.00,,---,0.00,0.00,VWS V14.01,2013-02-16 11:16:00,
2013-02-16 06:17:00,30.9,28.9,29.93,NNE,14,0.0,1.0,92,0.00,,---,0.00,0.00,VWS V14.01,2013-02-16 11:17:00,
2013-02-16 06:20:00,30.9,28.9,29.93,NNW,341,0.0,1.0,92,0.00,,---,0.00,0.00,VWS V14.01,2013-02-16 11:20:00,
2013-02-16 06:21:00,30.9,28.9,29.93,North,349,0.0,1.0,92,0.00,,---,0.00,0.00,VWS V14.01,2013-02-16 11:21:00,
2013-02-16 06:22:00,30.9,28.9,29.93,North,349,0.0,1.0,92,0.00,,---,0.00,0.00,VWS V14.01,2013-02-16 11:22:00,
2013-02-16 06:25:00,30.9,28.9,29.93,North,349,0.0,0.0,92,0.00,,---,0.00,0.00,VWS V14.01,2013-02-16 11:25:00,
2013-02-16 06:26:00,30.9,28.9,29.93,North,349,0.0,0.0,92,0.00,,---,0.00,0.00,VWS V14.01,2013-02-16 11:26:00,
2013-02-16 06:27:00,30.8,28.8,29.93,North,349,0.0,0.0,92,0.00,,---,0.00,0.00,VWS V14.01,2013-02-16 11:27:00,
2013-02-16 06:28:00,30.9,28.9,29.93,NNW,348,0.0,2.0,92,0.00,,---,0.00,0.00,VWS V14.01,2013-02-16 11:28:00,
2013-02-16 06:30:00,30.9,28.9,29.93,NNE,26,0.0,3.0,92,0.00,,---,0.00,0.00,VWS V14.01,2013-02-16 11:30:00,
2013-02-16 06:31:00,30.9,28.9,29.93,NNE,26,0.0,3.0,92,0.00,,---,0.00,0.00,VWS V14.01,2013-02-16 11:31:00,
2013-02-16 06:32:00,30.8,28.8,29.93,NNE,26,0.0,0.0,92,0.00,,---,0.00,0.00,VWS V14.01,2013-02-16 11:32:00,
2013-02-16 06:33:00,30.8,28.8,29.93,NNE,26,0.0,1.0,92,0.00,,---,0.00,0.00,VWS V14.01,2013-02-16 11:33:00,
2013-02-16 06:35:00,30.8,28.8,29.93,NNE,26,0.0,1.0,92,0.00,,---,0.00,0.00,VWS V14.01,2013-02-16 11:35:00,
2013-02-16 06:36:00,30.8,28.8,29.93,SW,227,1.0,3.0,92,0.00,,---,0.00,0.00,VWS V14.01,2013-02-16 11:36:00,
2013-02-16 06:37:00,30.8,28.5,29.93,ENE,71,0.0,3.0,91,0.00,,---,0.00,0.00,VWS V14.01,2013-02-16 11:37:00,
2013-02-16 06:38:00,30.8,28.5,29.93,NNE,22,0.0,3.0,91,0.00,,---,0.00,0.00,VWS V14.01,2013-02-16 11:38:00,
2013-02-16 06:40:00,30.8,28.5,29.93,NNE,22,1.0,3.0,91,0.00,,---,0.00,0.00,VWS V14.01,2013-02-16 11:40:00,
2013-02-16 06:41:00,30.8,28.2,29.93,NNE,22,0.0,3.0,90,0.00,,---,0.00,0.00,VWS V14.01,2013-02-16 11:41:00,
2013-02-16 06:42:00,30.8,28.2,29.93,NNE,22,0.0,0.0,90,0.00,,---,0.00,0.00,VWS V14.01,2013-02-16 11:42:00,
2013-02-16 06:43:00,30.7,28.1,29.93,NNE,22,0.0,2.0,90,0.00,,---,0.00,0.00,VWS V14.01,2013-02-16 11:43:00,
2013-02-16 06:45:00,30.7,28.1,29.93,WNW,287,0.0,2.0,90,0.00,,---,0.00,0.00,VWS V14.01,2013-02-16 11:45:00,
2013-02-16 06:46:00,30.7,28.1,29.93,NNW,333,2.0,2.0,90,0.00,,---,0.00,0.00,VWS V14.01,2013-02-16 11:46:00,
2013-02-16 06:47:00,30.7,27.9,29.93,NNW,333,1.0,2.0,89,0.00,,---,0.00,0.00,VWS V14.01,2013-02-16 11:47:00,
2013-02-16 06:48:00,30.7,27.9,29.93,NNW,334,0.0,2.0,89,0.00,,---,0.00,0.00,VWS V14.01,2013-02-16 11:48:00,
2013-02-16 06:51:00,30.6,27.5,29.93,NNE,23,0.0,3.0,88,0.00,,---,0.00,0.00,VWS V14.01,2013-02-16 11:51:00,
2013-02-16 06:53:00,30.6,27.5,29.93,NE,52,0.0,1.0,88,0.00,,---,0.00,0.00,VWS V14.01,2013-02-16 11:53:00,
2013-02-16 06:56:00,30.5,27.4,29.93,North,355,3.0,3.0,88,0.00,,---,0.00,0.00,VWS V14.01,2013-02-16 11:56:00,
2013-02-16 06:57:00,30.5,27.4,29.93,NNW,347,0.0,3.0,88,0.00,,---,0.00,0.00,VWS V14.01,2013-02-16 11:57:00,
2013-02-16 06:58:00,30.5,27.4,29.93,NNW,347,0.0,3.0,88,0.00,,---,0.00,0.00,VWS V14.01,2013-02-16 11:58:00,
2013-02-16 07:01:00,30.4,27.3,29.93,NNW,338,2.0,3.0,88,0.00,,---,0.00,0.00,VWS V14.01,2013-02-16 12:01:00,
2013-02-16 07:02:00,30.4,27.3,29.93,North,355,1.0,1.0,88,0.00,,---,0.00,0.00,VWS V14.01,2013-02-16 12:02:00,
2013-02-16 07:03:00,30.4,27.3,29.93,NNE,32,2.0,2.0,88,0.00,,---,0.00,0.00,VWS V14.01,2013-02-16 12:03:00,
2013-02-16 07:06:00,30.3,27.2,29.94,North,11,0.0,2.0,88,0.00,,---,0.00,5.00,VWS V14.01,2013-02-16 12:06:00,
2013-02-16 07:07:00,30.3,27.2,29.93,North,5,0.0,2.0,88,0.00,,---,0.00,0.00,VWS V14.01,2013-02-16 12:07:00,
2013-02-16 07:08:00,30.3,27.2,29.93,North,5,0.0,2.0,88,0.00,,---,0.00,0.00,VWS V14.01,2013-02-16 12:08:00,
2013-02-16 07:09:00,30.3,27.2,29.93,North,5,0.0,2.0,88,0.00,,---,0.00,0.00,VWS V14.01,2013-02-16 12:09:00,
2013-02-16 07:11:00,30.2,27.4,29.93,NE,40,0.0,2.0,89,0.00,,---,0.00,0.00,VWS V14.01,2013-02-16 12:11:00,
2013-02-16 07:12:00,30.2,27.4,29.93,NNE,16,0.0,1.0,89,0.00,,---,0.00,5.00,VWS V14.01,2013-02-16 12:12:00,
2013-02-16 07:13:00,30.2,27.1,29.93,North,351,3.0,3.0,88,0.00,,---,0.00,7.00,VWS V14.01,2013-02-16 12:13:00,
2013-02-16 07:14:00,30.2,27.1,29.93,NNW,345,0.0,3.0,88,0.00,,---,0.00,7.00,VWS V14.01,2013-02-16 12:14:00,
2013-02-16 07:16:00,30.1,27.3,29.93,North,5,0.0,3.0,89,0.00,,---,0.00,11.00,VWS V14.01,2013-02-16 12:16:00,
2013-02-16 07:17:00,30.1,27.3,29.93,North,5,0.0,3.0,89,0.00,,---,0.00,11.00,VWS V14.01,2013-02-16 12:17:00,
2013-02-16 07:18:00,30.1,27.3,29.93,North,355,0.0,3.0,89,0.00,,---,0.00,11.00,VWS V14.01,2013-02-16 12:18:00,
2013-02-16 07:19:00,30.1,27.3,29.93,North,355,0.0,3.0,89,0.00,,---,0.00,11.00,VWS V14.01,2013-02-16 12:19:00,
2013-02-16 07:21:00,30.0,27.2,29.93,North,355,0.0,3.0,89,0.00,,---,0.00,12.00,VWS V14.01,2013-02-16 12:21:00,
2013-02-16 07:22:00,30.0,27.2,29.93,East,82,2.0,2.0,89,0.00,,---,0.00,12.00,VWS V14.01,2013-02-16 12:22:00,
2013-02-16 07:23:00,30.0,27.2,29.93,NNE,24,0.0,2.0,89,0.00,,---,0.00,12.00,VWS V14.01,2013-02-16 12:23:00,
2013-02-16 07:24:00,30.0,27.2,29.93,North,5,1.0,2.0,89,0.00,,---,0.00,12.00,VWS V14.01,2013-02-16 12:24:00,
2013-02-16 07:26:00,30.0,27.2,29.93,NE,35,1.0,2.0,89,0.00,,---,0.00,11.00,VWS V14.01,2013-02-16 12:26:00,
2013-02-16 07:27:00,30.0,27.2,29.93,NE,35,0.0,2.0,89,0.00,,---,0.00,11.00,VWS V14.01,2013-02-16 12:27:00,
2013-02-16 07:28:00,30.0,27.2,29.93,NE,35,0.0,2.0,89,0.00,,---,0.00,11.00,VWS V14.01,2013-02-16 12:28:00,
2013-02-16 07:29:00,30.0,27.2,29.93,NNE,30,0.0,2.0,89,0.00,,---,0.00,11.00,VWS V14.01,2013-02-16 12:29:00,
2013-02-16 07:31:00,29.9,27.1,29.93,NNW,338,2.0,3.0,89,0.00,,---,0.00,11.00,VWS V14.01,2013-02-16 12:31:00,
2013-02-16 07:32:00,30.0,27.2,29.93,North,349,1.0,2.0,89,0.00,,---,0.00,11.00,VWS V14.01,2013-02-16 12:32:00,
2013-02-16 07:33:00,30.0,27.2,29.93,NNE,30,1.0,2.0,89,0.00,,---,0.00,12.00,VWS V14.01,2013-02-16 12:33:00,
2013-02-16 07:34:00,29.9,27.1,29.93,North,5,0.0,2.0,89,0.00,,---,0.00,12.00,VWS V14.01,2013-02-16 12:34:00,
2013-02-16 07:36:00,29.9,27.1,29.93,NE,44,0.0,2.0,89,0.00,,---,0.00,12.00,VWS V14.01,2013-02-16 12:36:00,
2013-02-16 07:37:00,29.9,27.1,29.93,NNE,22,1.0,2.0,89,0.00,,---,0.00,12.00,VWS V14.01,2013-02-16 12:37:00,
2013-02-16 07:38:00,29.9,27.1,29.93,North,350,1.0,3.0,89,0.00,,---,0.00,12.00,VWS V14.01,2013-02-16 12:38:00,
2013-02-16 07:39:00,29.9,27.1,29.93,NE,49,1.0,3.0,89,0.00,,---,0.00,12.00,VWS V14.01,2013-02-16 12:39:00,
2013-02-16 07:42:00,29.9,27.3,29.93,NNW,333,0.0,3.0,90,0.00,,---,0.00,12.00,VWS V14.01,2013-02-16 12:42:00,
2013-02-16 07:43:00,29.9,27.1,29.93,North,355,3.0,3.0,89,0.00,,---,0.00,12.00,VWS V14.01,2013-02-16 12:43:00,
2013-02-16 07:44:00,29.9,27.3,29.93,North,355,2.0,3.0,90,0.00,,---,0.00,12.00,VWS V14.01,2013-02-16 12:44:00,
2013-02-16 07:47:00,29.9,27.1,29.93,NNW,338,1.0,3.0,89,0.00,,---,0.00,12.00,VWS V14.01,2013-02-16 12:47:00,
2013-02-16 07:48:00,29.9,27.1,29.93,North,5,0.0,3.0,89,0.00,,---,0.00,12.00,VWS V14.01,2013-02-16 12:48:00,
2013-02-16 07:49:00,29.9,27.1,29.93,North,360,2.0,3.0,89,0.00,,---,0.00,12.00,VWS V14.01,2013-02-16 12:49:00,
2013-02-16 07:50:00,29.9,27.1,29.93,NNW,340,0.0,3.0,89,0.00,,---,0.00,14.00,VWS V14.01,2013-02-16 12:50:00,
2013-02-16 07:52:00,29.9,27.1,29.93,North,355,0.0,0.0,89,0.00,,---,0.00,14.00,VWS V14.01,2013-02-16 12:52:00,
2013-02-16 07:53:00,29.9,27.1,29.93,North,355,0.0,0.0,89,0.00,,---,0.00,14.00,VWS V14.01,2013-02-16 12:53:00,
2013-02-16 07:54:00,29.9,27.3,29.93,North,350,1.0,2.0,90,0.00,,---,0.00,14.00,VWS V14.01,2013-02-16 12:54:00,
2013-02-16 07:55:00,29.9,27.3,29.93,North,350,1.0,2.0,90,0.00,,---,0.00,14.00,VWS V14.01,2013-02-16 12:55:00,
2013-02-16 07:57:00,29.9,27.3,29.93,NNW,339,1.0,2.0,90,0.00,,---,0.00,14.00,VWS V14.01,2013-02-16 12:57:00,
2013-02-16 07:58:00,29.9,27.1,29.93,WSW,246,0.0,2.0,89,0.00,,---,0.00,16.00,VWS V14.01,2013-02-16 12:58:00,
2013-02-16 07:59:00,29.9,27.1,29.93,NNW,346,0.0,2.0,89,0.00,,---,0.00,18.00,VWS V14.01,2013-02-16 12:59:00,
2013-02-16 08:00:00,29.9,27.1,29.93,NE,37,1.0,2.0,89,0.00,,---,0.00,18.00,VWS V14.01,2013-02-16 13:00:00,
2013-02-16 08:02:00,29.9,27.1,29.93,NNE,26,0.0,0.0,89,0.00,,---,0.00,19.00,VWS V14.01,2013-02-16 13:02:00,
2013-02-16 08:03:00,29.9,27.1,29.93,NNE,13,2.0,2.0,89,0.00,,---,0.00,19.00,VWS V14.01,2013-02-16 13:03:00,
2013-02-16 08:04:00,29.9,27.1,29.93,NNE,13,0.0,2.0,89,0.00,,---,0.00,19.00,VWS V14.01,2013-02-16 13:04:00,
2013-02-16 08:05:00,30.0,27.2,29.93,NNE,13,0.0,2.0,89,0.00,,---,0.00,21.00,VWS V14.01,2013-02-16 13:05:00,
2013-02-16 08:07:00,30.0,27.2,29.94,North,5,1.0,2.0,89,0.00,,---,0.00,21.00,VWS V14.01,2013-02-16 13:07:00,
2013-02-16 08:08:00,30.0,27.2,29.94,North,5,0.0,2.0,89,0.00,,---,0.00,23.00,VWS V14.01,2013-02-16 13:08:00,
2013-02-16 08:09:00,30.0,27.2,29.93,North,5,2.0,2.0,89,0.00,,---,0.00,23.00,VWS V14.01,2013-02-16 13:09:00,
2013-02-16 08:10:00,30.0,27.2,29.93,North,5,2.0,2.0,89,0.00,,---,0.00,23.00,VWS V14.01,2013-02-16 13:10:00,
2013-02-16 08:12:00,30.1,27.3,29.93,North,5,1.0,1.0,89,0.00,,---,0.00,25.00,VWS V14.01,2013-02-16 13:12:00,
2013-02-16 08:13:00,30.1,27.3,29.93,NNE,25,0.0,1.0,89,0.00,,---,0.00,26.00,VWS V14.01,2013-02-16 13:13:00,
2013-02-16 08:14:00,30.1,27.3,29.94,NNE,24,0.0,1.0,89,0.00,,---,0.00,28.00,VWS V14.01,2013-02-16 13:14:00,
2013-02-16 08:15:00,30.1,27.3,29.94,NNE,24,0.0,1.0,89,0.00,,---,0.00,28.00,VWS V14.01,2013-02-16 13:15:00,
2013-02-16 08:17:00,30.1,27.3,29.94,NNE,24,0.0,1.0,89,0.00,,---,0.00,30.00,VWS V14.01,2013-02-16 13:17:00,
2013-02-16 08:18:00,30.2,27.6,29.93,NNE,24,0.0,1.0,90,0.00,,---,0.00,30.00,VWS V14.01,2013-02-16 13:18:00,
2013-02-16 08:19:00,30.2,27.4,29.93,NNE,24,0.0,1.0,89,0.00,,---,0.00,33.00,VWS V14.01,2013-02-16 13:19:00,
2013-02-16 08:20:00,30.2,27.4,29.93,North,360,3.0,3.0,89,0.00,,---,0.00,33.00,VWS V14.01,2013-02-16 13:20:00,
2013-02-16 08:22:00,30.2,27.4,29.93,North,355,0.0,0.0,89,0.00,,---,0.00,42.00,VWS V14.01,2013-02-16 13:22:00,
2013-02-16 08:23:00,30.2,27.4,29.93,North,355,0.0,0.0,89,0.00,,---,0.00,44.00,VWS V14.01,2013-02-16 13:23:00,
2013-02-16 08:25:00,30.3,27.5,29.93,North,355,0.0,1.0,89,0.00,,---,0.00,44.00,VWS V14.01,2013-02-16 13:25:00,
2013-02-16 08:27:00,30.4,27.5,29.93,NNW,346,1.0,2.0,89,0.00,,---,0.00,47.00,VWS V14.01,2013-02-16 13:27:00,
2013-02-16 08:28:00,30.4,27.5,29.93,NNW,346,0.0,2.0,89,0.00,,---,0.00,46.00,VWS V14.01,2013-02-16 13:28:00,
2013-02-16 08:30:00,30.4,27.3,29.93,North,355,2.0,3.0,88,0.00,,---,0.00,39.00,VWS V14.01,2013-02-16 13:30:00,
2013-02-16 08:32:00,30.4,27.3,29.94,North,355,0.0,0.0,88,0.00,,---,0.00,26.00,VWS V14.01,2013-02-16 13:32:00,
2013-02-16 08:33:00,30.4,27.3,29.94,ENE,62,0.0,1.0,88,0.00,,---,0.00,25.00,VWS V14.01,2013-02-16 13:33:00,
2013-02-16 08:35:00,30.4,27.3,29.94,ENE,57,0.0,1.0,88,0.00,,---,0.00,25.00,VWS V14.01,2013-02-16 13:35:00,
2013-02-16 08:38:00,30.4,27.3,29.93,ENE,57,0.0,1.0,88,0.00,,---,0.00,21.00,VWS V14.01,2013-02-16 13:38:00,
2013-02-16 08:39:00,30.4,27.5,29.93,ENE,57,0.0,1.0,89,0.00,,---,0.00,21.00,VWS V14.01,2013-02-16 13:39:00,
2013-02-16 08:40:00,30.4,27.5,29.93,ENE,57,0.0,1.0,89,0.00,,---,0.00,23.00,VWS V14.01,2013-02-16 13:40:00,
2013-02-16 08:43:00,30.4,27.5,29.93,ENE,57,0.0,0.0,89,0.00,,---,0.00,26.00,VWS V14.01,2013-02-16 13:43:00,
2013-02-16 08:44:00,30.4,27.5,29.93,NE,42,0.0,1.0,89,0.00,,---,0.00,28.00,VWS V14.01,2013-02-16 13:44:00,
2013-02-16 08:45:00,30.4,27.3,29.93,NE,41,0.0,1.0,88,0.00,,---,0.00,28.00,VWS V14.01,2013-02-16 13:45:00,
2013-02-16 08:48:00,30.4,27.3,29.93,NE,56,1.0,1.0,88,0.00,,---,0.00,26.00,VWS V14.01,2013-02-16 13:48:00,
2013-02-16 08:49:00,30.4,27.3,29.93,NNW,344,0.0,2.0,88,0.00,,---,0.00,26.00,VWS V14.01,2013-02-16 13:49:00,
2013-02-16 08:50:00,30.4,27.3,29.93,NNW,344,0.0,2.0,88,0.00,,---,0.00,33.00,VWS V14.01,2013-02-16 13:50:00,
2013-02-16 08:53:00,30.4,27.3,29.93,NNW,346,2.0,2.0,88,0.00,,---,0.00,35.00,VWS V14.01,2013-02-16 13:53:00,
2013-02-16 08:54:00,30.4,27.0,29.93,NNW,341,1.0,3.0,87,0.00,,---,0.00,35.00,VWS V14.01,2013-02-16 13:54:00,
2013-02-16 08:55:00,30.5,27.1,29.93,North,360,1.0,3.0,87,0.00,,---,0.00,33.00,VWS V14.01,2013-02-16 13:55:00,
2013-02-16 08:58:00,30.5,27.1,29.93,NNE,20,1.0,3.0,87,0.00,,---,0.00,35.00,VWS V14.01,2013-02-16 13:58:00,
2013-02-16 08:59:00,30.5,27.1,29.93,NE,43,0.0,3.0,87,0.00,,---,0.00,37.00,VWS V14.01,2013-02-16 13:59:00,
2013-02-16 09:00:00,30.6,27.2,29.93,NNE,20,1.0,3.0,87,0.00,,---,0.00,37.00,VWS V14.01,2013-02-16 14:00:00,
2013-02-16 09:03:00,30.6,26.9,29.93,North,355,0.0,1.0,86,0.00,,---,0.00,33.00,VWS V14.01,2013-02-16 14:03:00,
2013-02-16 09:05:00,30.6,27.2,29.93,North,355,0.0,2.0,87,0.00,,---,0.00,32.00,VWS V14.01,2013-02-16 14:05:00,
2013-02-16 09:06:00,30.7,27.3,29.93,NNE,32,1.0,2.0,87,0.00,,---,0.00,30.00,VWS V14.01,2013-02-16 14:06:00,
2013-02-16 09:08:00,30.7,27.0,29.93,NE,36,0.0,2.0,86,0.00,,---,0.00,30.00,VWS V14.01,2013-02-16 14:08:00,
2013-02-16 09:10:00,30.7,27.0,29.93,NE,36,0.0,2.0,86,0.00,,---,0.00,30.00,VWS V14.01,2013-02-16 14:10:00,
2013-02-16 09:11:00,30.7,27.0,29.93,NE,36,0.0,2.0,86,0.00,,---,0.00,30.00,VWS V14.01,2013-02-16 14:11:00,
2013-02-16 09:13:00,30.7,26.7,29.93,NE,40,0.0,2.0,85,0.00,,---,0.00,32.00,VWS V14.01,2013-02-16 14:13:00,
2013-02-16 09:15:00,30.7,26.7,29.93,NE,40,0.0,2.0,85,0.00,,---,0.00,33.00,VWS V14.01,2013-02-16 14:15:00,
2013-02-16 09:16:00,30.7,26.7,29.93,NE,40,0.0,2.0,85,0.00,,---,0.00,35.00,VWS V14.01,2013-02-16 14:16:00,
2013-02-16 09:19:00,30.8,27.1,29.93,North,5,1.0,2.0,86,0.00,,---,0.00,42.00,VWS V14.01,2013-02-16 14:19:00,
2013-02-16 09:20:00,30.9,27.2,29.93,ENE,67,0.0,2.0,86,0.00,,---,0.00,44.00,VWS V14.01,2013-02-16 14:20:00,
2013-02-16 09:21:00,30.9,26.9,29.93,NNE,18,2.0,3.0,85,0.00,,---,0.00,46.00,VWS V14.01,2013-02-16 14:21:00,
2013-02-16 09:24:00,31.0,26.7,29.93,NNE,12,0.0,1.0,84,0.00,,---,0.00,49.00,VWS V14.01,2013-02-16 14:24:00,
2013-02-16 09:25:00,31.0,26.7,29.93,NW,319,0.0,1.0,84,0.00,,---,0.00,51.00,VWS V14.01,2013-02-16 14:25:00,
2013-02-16 09:26:00,31.0,26.7,29.93,NNW,346,0.0,2.0,84,0.00,,---,0.00,53.00,VWS V14.01,2013-02-16 14:26:00,
2013-02-16 09:29:00,31.1,26.8,29.93,NNW,346,0.0,2.0,84,0.00,,---,0.00,62.00,VWS V14.01,2013-02-16 14:29:00,
2013-02-16 09:30:00,31.2,26.6,29.92,NNW,347,2.0,3.0,83,0.00,,---,0.00,65.00,VWS V14.01,2013-02-16 14:30:00,
2013-02-16 09:31:00,31.2,26.6,29.92,North,350,1.0,3.0,83,0.00,,---,0.00,70.00,VWS V14.01,2013-02-16 14:31:00,
2013-02-16 09:34:00,31.3,26.5,29.93,NNW,338,0.0,2.0,82,0.00,,---,0.00,72.00,VWS V14.01,2013-02-16 14:34:00,
2013-02-16 09:35:00,31.4,26.5,29.93,NNW,338,0.0,2.0,82,0.00,,---,0.00,76.00,VWS V14.01,2013-02-16 14:35:00,
2013-02-16 09:36:00,31.4,26.5,29.93,NNW,338,0.0,2.0,82,0.00,,---,0.00,76.00,VWS V14.01,2013-02-16 14:36:00,
2013-02-16 09:39:00,31.5,26.4,29.93,North,355,2.0,3.0,81,0.00,,---,0.00,67.00,VWS V14.01,2013-02-16 14:39:00,
2013-02-16 09:40:00,31.5,26.6,29.93,WSW,248,0.0,3.0,82,0.00,,---,0.00,65.00,VWS V14.01,2013-02-16 14:40:00,
2013-02-16 09:41:00,31.5,26.6,29.93,NNW,340,2.0,3.0,82,0.00,,---,0.00,63.00,VWS V14.01,2013-02-16 14:41:00,
2013-02-16 09:44:00,31.6,26.8,29.93,NNW,342,0.0,1.0,82,0.00,,---,0.00,65.00,VWS V14.01,2013-02-16 14:44:00,
2013-02-16 09:45:00,31.7,26.8,29.93,NNW,346,3.0,3.0,82,0.00,,---,0.00,65.00,VWS V14.01,2013-02-16 14:45:00,
2013-02-16 09:46:00,31.7,26.8,29.93,NNW,346,0.0,3.0,82,0.00,,---,0.00,65.00,VWS V14.01,2013-02-16 14:46:00,
2013-02-16 09:49:00,31.6,26.1,29.93,North,355,0.0,4.0,80,0.00,,---,0.00,60.00,VWS V14.01,2013-02-16 14:49:00,
2013-02-16 09:50:00,31.6,26.1,29.93,NNE,21,2.0,4.0,80,0.00,,---,0.00,58.00,VWS V14.01,2013-02-16 14:50:00,
2013-02-16 09:51:00,31.6,25.9,29.93,NNE,23,2.0,4.0,79,0.00,,---,0.00,56.00,VWS V14.01,2013-02-16 14:51:00,
2013-02-16 09:52:00,31.6,26.1,29.93,NNW,342,1.0,4.0,80,0.00,,---,0.00,56.00,VWS V14.01,2013-02-16 14:52:00,
2013-02-16 09:54:00,31.5,26.0,29.92,North,355,2.0,3.0,80,0.00,,---,0.00,54.00,VWS V14.01,2013-02-16 14:54:00,
2013-02-16 09:55:00,31.5,25.8,29.92,North,360,1.0,3.0,79,0.00,,---,0.00,58.00,VWS V14.01,2013-02-16 14:55:00,
2013-02-16 09:56:00,31.5,26.0,29.92,WSW,237,0.0,3.0,80,0.00,,---,0.00,62.00,VWS V14.01,2013-02-16 14:56:00,
2013-02-16 09:57:00,31.5,25.8,29.92,WSW,237,0.0,3.0,79,0.00,,---,0.00,63.00,VWS V14.01,2013-02-16 14:57:00,
2013-02-16 09:59:00,31.5,25.8,29.92,West,272,3.0,4.0,79,0.00,,---,0.00,76.00,VWS V14.01,2013-02-16 14:59:00,
2013-02-16 10:00:00,31.5,25.4,29.92,North,355,3.0,4.0,78,0.00,,---,0.00,76.00,VWS V14.01,2013-02-16 15:00:00,
2013-02-16 10:01:00,31.5,25.4,29.92,North,355,2.0,7.0,78,0.00,,---,0.00,76.00,VWS V14.01,2013-02-16 15:01:00,
2013-02-16 10:02:00,31.5,25.4,29.92,NNE,12,1.0,1.0,78,0.00,,---,0.00,76.00,VWS V14.01,2013-02-16 15:02:00,
2013-02-16 10:04:00,31.5,25.8,29.92,SW,234,0.0,4.0,79,0.00,,---,0.00,79.00,VWS V14.01,2013-02-16 15:04:00,
2013-02-16 10:05:00,31.5,25.8,29.92,NE,38,0.0,4.0,79,0.00,,---,0.00,79.00,VWS V14.01,2013-02-16 15:05:00,
2013-02-16 10:06:00,31.6,25.9,29.92,NNE,21,0.0,4.0,79,0.00,,---,0.00,74.00,VWS V14.01,2013-02-16 15:06:00,
2013-02-16 10:07:00,31.6,25.9,29.92,NNE,21,0.0,4.0,79,0.00,,---,0.00,74.00,VWS V14.01,2013-02-16 15:07:00,
2013-02-16 10:09:00,31.7,26.2,29.92,WNW,299,0.0,4.0,80,0.00,,---,0.00,65.00,VWS V14.01,2013-02-16 15:09:00,
2013-02-16 10:10:00,31.7,26.2,29.92,NNW,340,6.0,6.0,80,0.00,,---,0.00,74.00,VWS V14.01,2013-02-16 15:10:00,
2013-02-16 10:11:00,31.8,25.7,29.92,NNW,329,3.0,6.0,78,0.00,,---,0.00,79.00,VWS V14.01,2013-02-16 15:11:00,
2013-02-16 10:12:00,31.8,25.4,29.92,NNW,340,2.0,3.0,77,0.00,,---,0.00,79.00,VWS V14.01,2013-02-16 15:12:00,
2013-02-16 10:15:00,31.8,25.4,29.92,NNW,335,1.0,3.0,77,0.00,,---,0.00,95.00,VWS V14.01,2013-02-16 15:15:00,
2013-02-16 10:16:00,31.9,25.5,29.92,NNW,336,0.0,3.0,77,0.00,,---,0.00,97.00,VWS V14.01,2013-02-16 15:16:00,
2013-02-16 10:17:00,31.9,25.5,29.92,NNW,346,2.0,3.0,77,0.00,,---,0.00,100.00,VWS V14.01,2013-02-16 15:17:00,
2013-02-16 10:20:00,32.1,25.4,29.92,NNW,342,2.0,3.0,76,0.00,,---,0.00,107.00,VWS V14.01,2013-02-16 15:20:00,
2013-02-16 10:21:00,32.1,25.7,29.91,NW,307,2.0,3.0,77,0.00,,---,0.00,111.00,VWS V14.01,2013-02-16 15:21:00,
2013-02-16 10:22:00,32.2,25.5,29.91,NNW,334,2.0,6.0,76,0.00,,---,0.00,111.00,VWS V14.01,2013-02-16 15:22:00,
2013-02-16 10:25:00,32.2,25.5,29.91,NE,51,0.0,6.0,76,0.00,,---,0.00,95.00,VWS V14.01,2013-02-16 15:25:00,
2013-02-16 10:26:00,32.2,25.5,29.91,NNE,21,4.0,6.0,76,0.01,,---,0.01,165.00,VWS V14.01,2013-02-16 15:26:00,
2013-02-16 10:27:00,32.2,25.5,29.91,North,5,2.0,6.0,76,0.01,,---,0.01,107.00,VWS V14.01,2013-02-16 15:27:00,
2013-02-16 10:30:00,32.3,25.6,29.91,WSW,241,0.0,6.0,76,0.01,,---,0.01,113.00,VWS V14.01,2013-02-16 15:30:00,
2013-02-16 10:31:00,32.4,25.7,29.91,NW,325,2.0,6.0,76,0.01,,---,0.01,128.00,VWS V14.01,2013-02-16 15:31:00,
2013-02-16 10:32:00,32.4,25.4,29.91,North,351,0.0,1.0,75,0.01,,---,0.01,137.00,VWS V14.01,2013-02-16 15:32:00,
2013-02-16 10:35:00,32.5,25.5,29.91,North,350,3.0,5.0,75,0.01,,---,0.01,153.00,VWS V14.01,2013-02-16 15:35:00,
2013-02-16 10:36:00,32.5,24.8,29.91,SW,225,2.0,5.0,73,0.01,,---,0.01,130.00,VWS V14.01,2013-02-16 15:36:00,
2013-02-16 10:37:00,32.5,25.1,29.91,SSW,209,0.0,5.0,74,0.01,,---,0.01,120.00,VWS V14.01,2013-02-16 15:37:00,
2013-02-16 10:40:00,32.5,24.8,29.91,NNW,333,0.0,5.0,73,0.01,,---,0.01,246.00,VWS V14.01,2013-02-16 15:40:00,
2013-02-16 10:41:00,32.6,25.2,29.91,North,360,0.0,5.0,74,0.01,,---,0.01,250.00,VWS V14.01,2013-02-16 15:41:00,
2013-02-16 10:42:00,32.7,25.0,29.91,North,360,0.0,5.0,73,0.01,,---,0.01,260.00,VWS V14.01,2013-02-16 15:42:00,
2013-02-16 10:45:00,33.0,25.6,29.91,ENE,70,0.0,2.0,74,0.02,,---,0.02,264.00,VWS V14.01,2013-02-16 15:45:00,
2013-02-16 10:46:00,33.1,25.1,29.92,NNW,343,3.0,4.0,72,0.02,,---,0.02,278.00,VWS V14.01,2013-02-16 15:46:00,
2013-02-16 10:47:00,33.2,25.2,29.91,NNW,343,0.0,4.0,72,0.02,,---,0.02,276.00,VWS V14.01,2013-02-16 15:47:00,
2013-02-16 10:48:00,33.2,24.8,29.91,North,360,3.0,4.0,71,0.02,,---,0.02,274.00,VWS V14.01,2013-02-16 15:48:00,
2013-02-16 10:50:00,33.2,24.1,29.92,NNW,344,2.0,4.0,69,0.02,,---,0.02,302.00,VWS V14.01,2013-02-16 15:50:00,
2013-02-16 10:51:00,33.2,24.1,29.92,NE,46,2.0,4.0,69,0.02,,---,0.02,255.00,VWS V14.01,2013-02-16 15:51:00,
2013-02-16 10:52:00,33.2,24.5,29.92,North,355,1.0,2.0,70,0.02,,---,0.02,325.00,VWS V14.01,2013-02-16 15:52:00,
2013-02-16 10:53:00,33.1,23.7,29.92,North,360,3.0,4.0,68,0.02,,---,0.02,292.00,VWS V14.01,2013-02-16 15:53:00,
2013-02-16 10:55:00,33.1,24.0,29.92,North,355,1.0,4.0,69,0.02,,---,0.02,181.00,VWS V14.01,2013-02-16 15:55:00,
2013-02-16 10:56:00,33.1,24.0,29.92,North,355,0.0,4.0,69,0.02,,---,0.02,169.00,VWS V14.01,2013-02-16 15:56:00,
2013-02-16 10:57:00,33.2,24.5,29.92,North,355,0.0,4.0,70,0.02,,---,0.02,171.00,VWS V14.01,2013-02-16 15:57:00,
2013-02-16 10:58:00,33.2,24.5,29.92,NE,55,1.0,4.0,70,0.02,,---,0.02,206.00,VWS V14.01,2013-02-16 15:58:00,
2013-02-16 11:00:00,33.3,24.2,29.92,NE,50,0.0,4.0,69,0.02,,---,0.02,181.00,VWS V14.01,2013-02-16 16:00:00,
2013-02-16 11:01:00,33.4,24.3,29.92,NE,50,0.0,4.0,69,0.02,,---,0.02,229.00,VWS V14.01,2013-02-16 16:01:00,
2013-02-16 11:02:00,33.5,25.1,29.92,NNE,15,1.0,2.0,71,0.02,,---,0.02,214.00,VWS V14.01,2013-02-16 16:02:00,
2013-02-16 11:03:00,33.5,25.1,29.92,East,80,3.0,4.0,71,0.02,,---,0.02,200.00,VWS V14.01,2013-02-16 16:03:00,
2013-02-16 11:05:00,33.4,24.0,29.92,NE,40,2.0,5.0,68,0.02,,---,0.02,186.00,VWS V14.01,2013-02-16 16:05:00,
2013-02-16 11:06:00,33.2,23.8,29.92,ENE,58,1.0,5.0,68,0.02,,---,0.02,172.00,VWS V14.01,2013-02-16 16:06:00,
2013-02-16 11:07:00,33.2,24.1,29.92,NNE,16,0.0,5.0,69,0.02,,---,0.02,171.00,VWS V14.01,2013-02-16 16:07:00,
2013-02-16 11:08:00,33.2,24.1,29.91,North,355,2.0,5.0,69,0.02,,---,0.02,179.00,VWS V14.01,2013-02-16 16:08:00,
2013-02-16 11:10:00,33.2,24.1,29.92,NNW,336,1.0,5.0,69,0.02,,---,0.02,179.00,VWS V14.01,2013-02-16 16:10:00,
2013-02-16 11:11:00,33.2,24.1,29.92,NNW,344,1.0,5.0,69,0.02,,---,0.02,176.00,VWS V14.01,2013-02-16 16:11:00,
2013-02-16 11:12:00,33.2,24.5,29.92,NNW,344,0.0,0.0,70,0.02,,---,0.02,186.00,VWS V14.01,2013-02-16 16:12:00,
2013-02-16 11:13:00,33.3,25.3,29.92,NE,45,2.0,2.0,72,0.03,,---,0.03,197.00,VWS V14.01,2013-02-16 16:13:00,
2013-02-16 11:15:00,33.3,24.6,29.92,NNW,338,3.0,5.0,70,0.03,,---,0.03,174.00,VWS V14.01,2013-02-16 16:15:00,
2013-02-16 11:16:00,33.3,24.6,29.92,North,355,1.0,5.0,70,0.03,,---,0.03,171.00,VWS V14.01,2013-02-16 16:16:00,
2013-02-16 11:17:00,33.2,24.8,29.92,North,10,2.0,5.0,71,0.03,,---,0.03,163.00,VWS V14.01,2013-02-16 16:17:00,
2013-02-16 11:18:00,33.2,24.1,29.92,NE,38,0.0,5.0,69,0.03,,---,0.03,156.00,VWS V14.01,2013-02-16 16:18:00,
2013-02-16 11:20:00,33.0,24.6,29.91,NNW,348,1.0,5.0,71,0.03,,---,0.03,148.00,VWS V14.01,2013-02-16 16:20:00,
2013-02-16 11:22:00,33.0,24.0,29.91,North,350,1.0,5.0,69,0.03,,---,0.03,148.00,VWS V14.01,2013-02-16 16:22:00,
2013-02-16 11:23:00,33.0,24.0,29.91,North,350,0.0,1.0,69,0.03,,---,0.03,153.00,VWS V14.01,2013-02-16 16:23:00,
2013-02-16 11:25:00,33.0,24.6,29.91,North,350,0.0,2.0,71,0.03,,---,0.03,169.00,VWS V14.01,2013-02-16 16:25:00,
2013-02-16 11:27:00,33.1,24.7,29.91,ENE,73,1.0,4.0,71,0.03,,---,0.03,163.00,VWS V14.01,2013-02-16 16:27:00,
2013-02-16 11:28:00,33.1,24.0,29.91,NNW,345,3.0,4.0,69,0.03,,---,0.03,169.00,VWS V14.01,2013-02-16 16:28:00,
2013-02-16 11:30:00,33.0,24.0,29.91,North,360,1.0,4.0,69,0.03,,---,0.03,172.00,VWS V14.01,2013-02-16 16:30:00,
2013-02-16 11:32:00,33.0,24.3,29.90,North,351,2.0,4.0,70,0.03,,---,0.03,174.00,VWS V14.01,2013-02-16 16:32:00,
2013-02-16 11:33:00,33.0,24.3,29.90,NNE,13,2.0,4.0,70,0.02,,---,0.03,199.00,VWS V14.01,2013-02-16 16:33:00,
2013-02-16 11:35:00,33.1,24.4,29.90,North,350,1.0,5.0,70,0.02,,---,0.03,186.00,VWS V14.01,2013-02-16 16:35:00,
2013-02-16 11:37:00,33.2,23.8,29.91,North,5,0.0,5.0,68,0.02,,---,0.03,174.00,VWS V14.01,2013-02-16 16:37:00,
2013-02-16 11:39:00,33.2,24.1,29.90,NNW,335,2.0,5.0,69,0.02,,---,0.03,160.00,VWS V14.01,2013-02-16 16:39:00,
2013-02-16 11:40:00,33.3,24.2,29.90,NNW,338,4.0,5.0,69,0.02,,---,0.03,162.00,VWS V14.01,2013-02-16 16:40:00,
2013-02-16 11:42:00,33.3,23.9,29.90,NNW,342,2.0,2.0,68,0.02,,---,0.03,155.00,VWS V14.01,2013-02-16 16:42:00,
2013-02-16 11:43:00,33.3,23.9,29.90,NNW,338,1.0,4.0,68,0.02,,---,0.03,158.00,VWS V14.01,2013-02-16 16:43:00,
2013-02-16 11:44:00,33.3,23.9,29.90,NW,313,1.0,4.0,68,0.02,,---,0.03,185.00,VWS V14.01,2013-02-16 16:44:00,
2013-02-16 11:46:00,33.4,24.3,29.90,NNE,21,1.0,4.0,69,0.02,,---,0.03,153.00,VWS V14.01,2013-02-16 16:46:00,
2013-02-16 11:47:00,33.5,24.1,29.90,NNE,21,1.0,4.0,68,0.02,,---,0.03,151.00,VWS V14.01,2013-02-16 16:47:00,
2013-02-16 11:48:00,33.6,24.5,29.90,NNE,30,0.0,4.0,69,0.02,,---,0.03,160.00,VWS V14.01,2013-02-16 16:48:00,
2013-02-16 11:49:00,33.7,24.6,29.90,NE,40,2.0,5.0,69,0.02,,---,0.03,195.00,VWS V14.01,2013-02-16 16:49:00,
2013-02-16 11:51:00,33.8,24.7,29.90,NNE,20,1.0,5.0,69,0.02,,---,0.03,200.00,VWS V14.01,2013-02-16 16:51:00,
2013-02-16 11:52:00,33.9,24.5,29.90,ENE,63,2.0,2.0,68,0.01,,---,0.03,202.00,VWS V14.01,2013-02-16 16:52:00,
2013-02-16 11:53:00,34.0,24.6,29.90,East,88,0.0,3.0,68,0.01,,---,0.03,195.00,VWS V14.01,2013-02-16 16:53:00,
2013-02-16 11:54:00,34.1,24.3,29.90,NNW,336,2.0,3.0,67,0.01,,---,0.03,200.00,VWS V14.01,2013-02-16 16:54:00,
2013-02-16 11:56:00,34.2,24.0,29.90,ENE,69,1.0,3.0,66,0.01,,---,0.03,218.00,VWS V14.01,2013-02-16 16:56:00,
2013-02-16 11:57:00,34.4,24.6,29.90,SW,235,1.0,4.0,67,0.01,,---,0.03,207.00,VWS V14.01,2013-02-16 16:57:00,
2013-02-16 11:58:00,34.4,24.6,29.89,NNW,340,0.0,4.0,67,0.01,,---,0.03,200.00,VWS V14.01,2013-02-16 16:58:00,
2013-02-16 11:59:00,34.4,24.2,29.89,NNE,17,3.0,4.0,66,0.01,,---,0.03,221.00,VWS V14.01,2013-02-16 16:59:00,
2013-02-16 12:01:00,34.4,23.9,29.89,NNE,31,1.0,4.0,65,0.01,,---,0.03,176.00,VWS V14.01,2013-02-16 17:01:00,
2013-02-16 12:02:00,34.4,24.6,29.89,ENE,62,1.0,3.0,67,0.01,,---,0.03,169.00,VWS V14.01,2013-02-16 17:02:00,
2013-02-16 12:03:00,34.5,24.3,29.89,North,10,3.0,4.0,66,0.01,,---,0.03,158.00,VWS V14.01,2013-02-16 17:03:00,
2013-02-16 12:04:00,34.5,24.0,29.89,NNW,336,3.0,4.0,65,0.01,,---,0.03,183.00,VWS V14.01,2013-02-16 17:04:00,
2013-02-16 12:06:00,34.3,24.1,29.89,SW,229,0.0,4.0,66,0.01,,---,0.03,165.00,VWS V14.01,2013-02-16 17:06:00,
2013-02-16 12:08:00,34.4,25.0,29.89,NNE,19,2.0,4.0,68,0.01,,---,0.03,174.00,VWS V14.01,2013-02-16 17:08:00,
2013-02-16 12:09:00,34.4,25.0,29.89,North,5,0.0,4.0,68,0.01,,---,0.03,163.00,VWS V14.01,2013-02-16 17:09:00,
2013-02-16 12:11:00,34.5,24.3,29.89,NE,39,2.0,4.0,66,0.01,,---,0.03,148.00,VWS V14.01,2013-02-16 17:11:00,
2013-02-16 12:13:00,34.4,24.2,29.89,NNE,13,2.0,3.0,66,0.01,,---,0.03,160.00,VWS V14.01,2013-02-16 17:13:00,
2013-02-16 12:14:00,34.4,24.2,29.89,NE,39,2.0,4.0,66,0.01,,---,0.03,151.00,VWS V14.01,2013-02-16 17:14:00,
2013-02-16 12:16:00,34.3,24.1,29.89,NE,52,2.0,4.0,66,0.01,,---,0.03,125.00,VWS V14.01,2013-02-16 17:16:00,
2013-02-16 12:18:00,34.1,23.2,29.88,NE,41,0.0,4.0,64,0.01,,---,0.03,118.00,VWS V14.01,2013-02-16 17:18:00,
2013-02-16 12:19:00,34.1,24.0,29.88,NNE,21,2.0,4.0,66,0.01,,---,0.03,123.00,VWS V14.01,2013-02-16 17:19:00,
2013-02-16 12:21:00,34.0,23.5,29.88,NE,41,0.0,4.0,65,0.01,,---,0.03,137.00,VWS V14.01,2013-02-16 17:21:00,
2013-02-16 12:23:00,34.1,23.6,29.89,North,5,0.0,2.0,65,0.00,,---,0.03,146.00,VWS V14.01,2013-02-16 17:23:00,
2013-02-16 12:24:00,34.2,24.4,29.88,NNW,334,3.0,5.0,67,0.00,,---,0.03,141.00,VWS V14.01,2013-02-16 17:24:00,
2013-02-16 12:26:00,34.1,23.2,29.88,North,355,2.0,5.0,64,0.00,,---,0.03,135.00,VWS V14.01,2013-02-16 17:26:00,
2013-02-16 12:28:00,34.1,22.8,29.88,NE,42,1.0,5.0,63,0.00,,---,0.03,139.00,VWS V14.01,2013-02-16 17:28:00,
2013-02-16 12:30:00,34.0,22.7,29.88,North,355,0.0,5.0,63,0.00,,---,0.03,142.00,VWS V14.01,2013-02-16 17:30:00,
2013-02-16 12:31:00,34.0,23.1,29.88,NW,320,0.0,5.0,64,0.00,,---,0.03,148.00,VWS V14.01,2013-02-16 17:31:00,
2013-02-16 12:34:00,34.0,23.9,29.88,NNW,331,0.0,3.0,66,0.00,,---,0.03,155.00,VWS V14.01,2013-02-16 17:34:00,
2013-02-16 12:35:00,34.0,23.1,29.88,East,80,2.0,3.0,64,0.00,,---,0.03,162.00,VWS V14.01,2013-02-16 17:35:00,
2013-02-16 12:37:00,34.0,23.5,29.88,ENE,58,0.0,3.0,65,0.00,,---,0.03,167.00,VWS V14.01,2013-02-16 17:37:00,
2013-02-16 12:39:00,34.1,22.8,29.88,NE,55,2.0,3.0,63,0.00,,---,0.03,171.00,VWS V14.01,2013-02-16 17:39:00,
2013-02-16 12:40:00,34.1,22.5,29.88,ENE,66,0.0,5.0,62,0.00,,---,0.03,172.00,VWS V14.01,2013-02-16 17:40:00,
2013-02-16 12:42:00,34.1,23.2,29.88,ENE,76,2.0,2.0,64,0.00,,---,0.03,163.00,VWS V14.01,2013-02-16 17:42:00,
2013-02-16 12:44:00,34.2,22.5,29.88,NNE,15,2.0,3.0,62,0.00,,---,0.03,156.00,VWS V14.01,2013-02-16 17:44:00,
2013-02-16 12:45:00,34.2,22.9,29.88,NNE,15,0.0,3.0,63,0.00,,---,0.03,156.00,VWS V14.01,2013-02-16 17:45:00,
2013-02-16 12:47:00,34.4,23.5,29.88,NNW,342,2.0,3.0,64,0.00,,---,0.03,148.00,VWS V14.01,2013-02-16 17:47:00,
2013-02-16 12:49:00,34.6,23.3,29.87,NE,46,3.0,3.0,63,0.00,,---,0.03,130.00,VWS V14.01,2013-02-16 17:49:00,
2013-02-16 12:50:00,34.6,23.3,29.87,NNW,336,2.0,3.0,63,0.00,,---,0.03,130.00,VWS V14.01,2013-02-16 17:50:00,
2013-02-16 12:52:00,34.6,22.5,29.87,North,10,1.0,1.0,61,0.00,,---,0.03,151.00,VWS V14.01,2013-02-16 17:52:00,
2013-02-16 12:54:00,34.6,23.3,29.87,NE,44,0.0,3.0,63,0.00,,---,0.03,139.00,VWS V14.01,2013-02-16 17:54:00,
2013-02-16 12:55:00,34.5,23.2,29.87,NE,44,0.0,3.0,63,0.00,,---,0.03,139.00,VWS V14.01,2013-02-16 17:55:00,
2013-02-16 12:57:00,34.6,22.9,29.87,ENE,60,0.0,3.0,62,0.00,,---,0.03,139.00,VWS V14.01,2013-02-16 17:57:00,
2013-02-16 12:59:00,35.0,22.9,29.87,NNW,346,0.0,3.0,61,0.00,,---,0.03,127.00,VWS V14.01,2013-02-16 17:59:00,
2013-02-16 13:00:00,35.0,22.9,29.87,NNW,340,0.0,3.0,61,0.00,,---,0.03,123.00,VWS V14.01,2013-02-16 18:00:00,
2013-02-16 13:02:00,35.3,23.2,29.87,NNE,21,2.0,3.0,61,0.00,,---,0.03,118.00,VWS V14.01,2013-02-16 18:02:00,
2013-02-16 13:05:00,35.2,22.7,29.87,North,10,1.0,3.0,60,0.00,,---,0.03,114.00,VWS V14.01,2013-02-16 18:05:00,
2013-02-16 13:07:00,35.0,22.9,29.87,NE,39,1.0,3.0,61,0.00,,---,0.03,135.00,VWS V14.01,2013-02-16 18:07:00,
2013-02-16 13:10:00,34.9,22.0,29.87,NNW,344,2.0,4.0,59,0.00,,---,0.03,167.00,VWS V14.01,2013-02-16 18:10:00,
2013-02-16 13:12:00,35.0,22.9,29.87,WNW,290,0.0,1.0,61,0.00,,---,0.03,169.00,VWS V14.01,2013-02-16 18:12:00,
2013-02-16 13:15:00,35.1,23.0,29.87,SE,144,0.0,2.0,61,0.00,,---,0.03,158.00,VWS V14.01,2013-02-16 18:15:00,
2013-02-16 13:17:00,35.2,22.3,29.87,North,10,2.0,3.0,59,0.00,,---,0.03,151.00,VWS V14.01,2013-02-16 18:17:00,
2013-02-16 13:20:00,35.2,22.3,29.87,North,355,2.0,5.0,59,0.00,,---,0.03,155.00,VWS V14.01,2013-02-16 18:20:00,
2013-02-16 13:22:00,35.3,22.0,29.87,NNE,30,0.0,1.0,58,0.00,,---,0.03,167.00,VWS V14.01,2013-02-16 18:22:00,
2013-02-16 13:25:00,35.4,22.1,29.87,NNE,17,2.0,2.0,58,0.00,,---,0.03,158.00,VWS V14.01,2013-02-16 18:25:00,
2013-02-16 13:26:00,35.5,23.0,29.87,NNE,15,0.0,3.0,60,0.00,,---,0.03,162.00,VWS V14.01,2013-02-16 18:26:00,
2013-02-16 13:28:00,35.7,23.2,29.87,NNW,346,2.0,3.0,60,0.00,,---,0.03,162.00,VWS V14.01,2013-02-16 18:28:00,
2013-02-16 13:30:00,35.7,22.4,29.87,NE,44,0.0,3.0,58,0.00,,---,0.03,174.00,VWS V14.01,2013-02-16 18:30:00,
2013-02-16 13:31:00,35.7,22.8,29.87,North,360,2.0,3.0,59,0.00,,---,0.03,167.00,VWS V14.01,2013-02-16 18:31:00,
2013-02-16 13:33:00,35.7,22.8,29.87,North,360,2.0,2.0,59,0.00,,---,0.03,153.00,VWS V14.01,2013-02-16 18:33:00,
2013-02-16 13:35:00,35.6,21.9,29.87,NNE,22,0.0,2.0,57,0.00,,---,0.03,153.00,VWS V14.01,2013-02-16 18:35:00,
2013-02-16 13:36:00,35.5,21.8,29.87,NNE,22,1.0,2.0,57,0.00,,---,0.03,155.00,VWS V14.01,2013-02-16 18:36:00,
2013-02-16 13:38:00,35.7,22.8,29.87,WSW,253,0.0,2.0,59,0.00,,---,0.03,155.00,VWS V14.01,2013-02-16 18:38:00,
2013-02-16 13:40:00,35.8,22.1,29.87,SW,236,3.0,3.0,57,0.00,,---,0.03,130.00,VWS V14.01,2013-02-16 18:40:00,
2013-02-16 13:41:00,35.8,22.9,29.87,NNW,340,1.0,4.0,59,0.00,,---,0.03,127.00,VWS V14.01,2013-02-16 18:41:00,
2013-02-16 13:43:00,35.9,22.6,29.87,NNW,340,0.0,0.0,58,0.00,,---,0.03,113.00,VWS V14.01,2013-02-16 18:43:00,
2013-02-16 13:45:00,36.0,23.1,29.87,NNW,340,0.0,0.0,59,0.00,,---,0.03,107.00,VWS V14.01,2013-02-16 18:45:00,
2013-02-16 13:46:00,36.0,23.5,29.87,NNW,340,0.0,0.0,60,0.00,,---,0.03,107.00,VWS V14.01,2013-02-16 18:46:00,
2013-02-16 13:48:00,36.1,22.4,29.87,North,5,2.0,4.0,57,0.00,,---,0.03,107.00,VWS V14.01,2013-02-16 18:48:00,
2013-02-16 13:50:00,36.1,21.9,29.86,North,355,0.0,4.0,56,0.00,,---,0.03,104.00,VWS V14.01,2013-02-16 18:50:00,
2013-02-16 13:51:00,36.1,22.4,29.86,North,355,0.0,4.0,57,0.00,,---,0.03,109.00,VWS V14.01,2013-02-16 18:51:00,
2013-02-16 13:52:00,36.1,23.2,29.86,North,355,0.0,4.0,59,0.00,,---,0.03,116.00,VWS V14.01,2013-02-16 18:52:00,
2013-02-16 13:53:00,36.1,22.4,29.86,NW,314,1.0,3.0,57,0.00,,---,0.03,121.00,VWS V14.01,2013-02-16 18:53:00,
2013-02-16 13:55:00,36.1,22.4,29.86,WNW,292,0.0,3.0,57,0.00,,---,0.03,139.00,VWS V14.01,2013-02-16 18:55:00,
2013-02-16 13:56:00,36.1,22.8,29.86,WSW,240,2.0,3.0,58,0.00,,---,0.03,141.00,VWS V14.01,2013-02-16 18:56:00,
2013-02-16 13:57:00,36.1,22.8,29.86,WSW,240,0.0,3.0,58,0.00,,---,0.03,141.00,VWS V14.01,2013-02-16 18:57:00,
2013-02-16 13:58:00,36.1,22.8,29.86,WSW,240,0.0,3.0,58,0.00,,---,0.03,141.00,VWS V14.01,2013-02-16 18:58:00,
2013-02-16 14:00:00,36.1,22.4,29.86,NNW,336,0.0,3.0,57,0.00,,---,0.03,158.00,VWS V14.01,2013-02-16 19:00:00,
2013-02-16 14:01:00,36.1,21.9,29.86,NNW,336,0.0,3.0,56,0.00,,---,0.03,165.00,VWS V14.01,2013-02-16 19:01:00,
2013-02-16 14:02:00,36.1,21.9,29.86,NNW,336,0.0,3.0,56,0.00,,---,0.03,165.00,VWS V14.01,2013-02-16 19:02:00,
2013-02-16 14:03:00,36.1,22.4,29.86,NNW,341,0.0,2.0,57,0.00,,---,0.03,162.00,VWS V14.01,2013-02-16 19:03:00,
2013-02-16 14:05:00,36.1,23.2,29.86,SSW,207,0.0,3.0,59,0.00,,---,0.03,171.00,VWS V14.01,2013-02-16 19:05:00,
2013-02-16 14:06:00,36.1,21.9,29.86,NNW,343,3.0,3.0,56,0.00,,---,0.03,171.00,VWS V14.01,2013-02-16 19:06:00,
2013-02-16 14:07:00,36.1,22.4,29.86,WSW,248,1.0,3.0,57,0.00,,---,0.03,169.00,VWS V14.01,2013-02-16 19:07:00,
2013-02-16 14:08:00,36.1,21.5,29.86,NNW,347,3.0,4.0,55,0.00,,---,0.03,171.00,VWS V14.01,2013-02-16 19:08:00,
2013-02-16 14:10:00,36.0,21.4,29.86,NE,34,0.0,4.0,55,0.00,,---,0.03,172.00,VWS V14.01,2013-02-16 19:10:00,
2013-02-16 14:11:00,36.0,21.0,29.86,North,9,0.0,4.0,54,0.00,,---,0.03,172.00,VWS V14.01,2013-02-16 19:11:00,
2013-02-16 14:12:00,36.0,21.0,29.86,NNE,13,3.0,3.0,54,0.00,,---,0.03,178.00,VWS V14.01,2013-02-16 19:12:00,
2013-02-16 14:14:00,35.9,21.3,29.86,North,355,0.0,4.0,55,0.00,,---,0.03,178.00,VWS V14.01,2013-02-16 19:14:00,
2013-02-16 14:15:00,36.0,22.3,29.86,WNW,292,0.0,4.0,57,0.00,,---,0.03,169.00,VWS V14.01,2013-02-16 19:15:00,
2013-02-16 14:16:00,36.0,21.8,29.86,WNW,293,0.0,4.0,56,0.00,,---,0.03,156.00,VWS V14.01,2013-02-16 19:16:00,
2013-02-16 14:17:00,36.0,21.8,29.85,WNW,293,0.0,4.0,56,0.00,,---,0.03,153.00,VWS V14.01,2013-02-16 19:17:00,
2013-02-16 14:19:00,36.0,21.0,29.85,WNW,284,0.0,4.0,54,0.00,,---,0.03,149.00,VWS V14.01,2013-02-16 19:19:00,
2013-02-16 14:20:00,36.0,21.8,29.85,North,355,2.0,4.0,56,0.00,,---,0.03,153.00,VWS V14.01,2013-02-16 19:20:00,
2013-02-16 14:21:00,35.9,21.3,29.85,North,360,0.0,4.0,55,0.00,,---,0.03,153.00,VWS V14.01,2013-02-16 19:21:00,
2013-02-16 14:22:00,35.9,21.3,29.85,NNE,29,3.0,3.0,55,0.00,,---,0.03,153.00,VWS V14.01,2013-02-16 19:22:00,
2013-02-16 14:24:00,35.9,21.8,29.85,NNW,338,3.0,3.0,56,0.00,,---,0.03,160.00,VWS V14.01,2013-02-16 19:24:00,
2013-02-16 14:25:00,35.9,21.8,29.85,NNW,342,3.0,4.0,56,0.00,,---,0.03,169.00,VWS V14.01,2013-02-16 19:25:00,
2013-02-16 14:26:00,35.9,20.9,29.85,NNE,18,1.0,4.0,54,0.00,,---,0.03,169.00,VWS V14.01,2013-02-16 19:26:00,
2013-02-16 14:27:00,35.9,20.5,29.85,North,355,0.0,4.0,53,0.00,,---,0.03,165.00,VWS V14.01,2013-02-16 19:27:00,
2013-02-16 14:29:00,36.0,21.8,29.85,North,355,0.0,4.0,56,0.00,,---,0.03,185.00,VWS V14.01,2013-02-16 19:29:00,
2013-02-16 14:30:00,36.1,21.5,29.85,NNW,342,0.0,4.0,55,0.00,,---,0.03,178.00,VWS V14.01,2013-02-16 19:30:00,
2013-02-16 14:31:00,36.1,20.6,29.84,NNE,19,1.0,4.0,53,0.00,,---,0.03,172.00,VWS V14.01,2013-02-16 19:31:00,
2013-02-16 14:32:00,36.2,21.2,29.84,NNE,22,0.0,1.0,54,0.00,,---,0.03,158.00,VWS V14.01,2013-02-16 19:32:00,
2013-02-16 14:34:00,36.2,21.2,29.85,NNE,22,0.0,1.0,54,0.00,,---,0.03,114.00,VWS V14.01,2013-02-16 19:34:00,
2013-02-16 14:35:00,36.3,21.7,29.85,WNW,303,1.0,2.0,55,0.00,,---,0.03,91.00,VWS V14.01,2013-02-16 19:35:00,
2013-02-16 14:36:00,36.4,20.9,29.85,NNW,327,0.0,2.0,53,0.00,,---,0.03,86.00,VWS V14.01,2013-02-16 19:36:00,
2013-02-16 14:37:00,36.5,21.5,29.85,NNW,329,1.0,2.0,54,0.00,,---,0.03,81.00,VWS V14.01,2013-02-16 19:37:00,
2013-02-16 14:39:00,36.5,21.0,29.85,NNW,329,0.0,3.0,53,0.00,,---,0.03,62.00,VWS V14.01,2013-02-16 19:39:00,
2013-02-16 14:40:00,36.4,21.8,29.84,NNW,333,0.0,3.0,55,0.00,,---,0.03,67.00,VWS V14.01,2013-02-16 19:40:00,
2013-02-16 14:42:00,36.3,21.3,29.84,North,5,0.0,0.0,54,0.00,,---,0.03,79.00,VWS V14.01,2013-02-16 19:42:00,
2013-02-16 14:44:00,36.1,21.1,29.84,West,273,1.0,2.0,54,0.00,,---,0.03,120.00,VWS V14.01,2013-02-16 19:44:00,
2013-02-16 14:46:00,36.0,21.0,29.84,SW,232,1.0,2.0,54,0.00,,---,0.03,134.00,VWS V14.01,2013-02-16 19:46:00,
2013-02-16 14:47:00,35.9,20.9,29.84,SW,232,0.0,2.0,54,0.00,,---,0.03,109.00,VWS V14.01,2013-02-16 19:47:00,
2013-02-16 14:48:00,36.0,21.0,29.84,SW,232,0.0,2.0,54,0.00,,---,0.03,109.00,VWS V14.01,2013-02-16 19:48:00,
2013-02-16 14:49:00,35.9,21.8,29.84,NW,313,0.0,2.0,56,0.00,,---,0.03,105.00,VWS V14.01,2013-02-16 19:49:00,
2013-02-16 14:51:00,36.0,21.8,29.84,NNW,333,1.0,2.0,56,0.00,,---,0.03,105.00,VWS V14.01,2013-02-16 19:51:00,
2013-02-16 14:52:00,36.0,22.7,29.84,NNW,336,3.0,3.0,58,0.00,,---,0.03,97.00,VWS V14.01,2013-02-16 19:52:00,
2013-02-16 14:53:00,36.0,22.7,29.84,NNW,336,0.0,3.0,58,0.00,,---,0.03,97.00,VWS V14.01,2013-02-16 19:53:00,
2013-02-16 14:54:00,35.9,21.3,29.84,NNW,340,3.0,3.0,55,0.00,,---,0.03,97.00,VWS V14.01,2013-02-16 19:54:00,
2013-02-16 14:56:00,35.9,21.3,29.83,WNW,298,0.0,4.0,55,0.00,,---,0.03,107.00,VWS V14.01,2013-02-16 19:56:00,
2013-02-16 14:57:00,35.8,21.6,29.83,NW,326,1.0,4.0,56,0.00,,---,0.03,105.00,VWS V14.01,2013-02-16 19:57:00,
2013-02-16 14:58:00,35.8,21.6,29.83,NW,326,0.0,4.0,56,0.00,,---,0.03,105.00,VWS V14.01,2013-02-16 19:58:00,
2013-02-16 14:59:00,35.8,21.6,29.83,ENE,58,3.0,4.0,56,0.00,,---,0.03,105.00,VWS V14.01,2013-02-16 19:59:00,
2013-02-16 15:01:00,35.7,22.0,29.83,NNW,343,2.0,4.0,57,0.00,,---,0.03,116.00,VWS V14.01,2013-02-16 20:01:00,
2013-02-16 15:02:00,35.6,21.9,29.83,North,355,4.0,4.0,57,0.00,,---,0.03,130.00,VWS V14.01,2013-02-16 20:02:00,
2013-02-16 15:03:00,35.6,21.9,29.83,North,360,3.0,4.0,57,0.00,,---,0.03,141.00,VWS V14.01,2013-02-16 20:03:00,
2013-02-16 15:04:00,35.6,21.9,29.83,NNW,333,0.0,4.0,57,0.00,,---,0.03,132.00,VWS V14.01,2013-02-16 20:04:00,
2013-02-16 15:06:00,35.6,22.3,29.83,NNW,339,0.0,4.0,58,0.00,,---,0.03,111.00,VWS V14.01,2013-02-16 20:06:00,
2013-02-16 15:07:00,35.6,21.5,29.83,North,355,1.0,4.0,56,0.00,,---,0.03,98.00,VWS V14.01,2013-02-16 20:07:00,
2013-02-16 15:08:00,35.6,21.5,29.83,North,360,2.0,4.0,56,0.00,,---,0.03,98.00,VWS V14.01,2013-02-16 20:08:00,
2013-02-16 15:09:00,35.5,21.4,29.83,NNE,22,0.0,4.0,56,0.00,,---,0.03,76.00,VWS V14.01,2013-02-16 20:09:00,
2013-02-16 15:12:00,35.3,21.2,29.83,NNE,32,1.0,1.0,56,0.00,,---,0.03,93.00,VWS V14.01,2013-02-16 20:12:00,
2013-02-16 15:13:00,35.3,21.2,29.83,NE,51,1.0,3.0,56,0.00,,---,0.03,107.00,VWS V14.01,2013-02-16 20:13:00,
2013-02-16 15:14:00,35.2,21.5,29.83,NE,51,0.0,3.0,57,0.00,,---,0.03,141.00,VWS V14.01,2013-02-16 20:14:00,
2013-02-16 15:17:00,35.3,21.2,29.83,NNE,24,1.0,4.0,56,0.00,,---,0.03,155.00,VWS V14.01,2013-02-16 20:17:00,
2013-02-16 15:18:00,35.3,21.2,29.83,North,350,0.0,4.0,56,0.00,,---,0.03,135.00,VWS V14.01,2013-02-16 20:18:00,
2013-02-16 15:19:00,35.3,22.0,29.83,North,350,0.0,4.0,58,0.00,,---,0.03,102.00,VWS V14.01,2013-02-16 20:19:00,
2013-02-16 15:22:00,35.3,21.6,29.83,NNW,337,0.0,0.0,57,0.00,,---,0.03,90.00,VWS V14.01,2013-02-16 20:22:00,
2013-02-16 15:23:00,35.2,21.5,29.83,NNW,337,0.0,0.0,57,0.00,,---,0.03,86.00,VWS V14.01,2013-02-16 20:23:00,
2013-02-16 15:24:00,35.2,21.5,29.83,NNW,337,0.0,3.0,57,0.00,,---,0.03,86.00,VWS V14.01,2013-02-16 20:24:00,
2013-02-16 15:27:00,35.1,21.0,29.83,South,184,1.0,3.0,56,0.00,,---,0.03,70.00,VWS V14.01,2013-02-16 20:27:00,
2013-02-16 15:28:00,35.1,21.0,29.83,South,184,0.0,3.0,56,0.00,,---,0.03,69.00,VWS V14.01,2013-02-16 20:28:00,
2013-02-16 15:29:00,35.0,22.1,29.83,NNE,15,2.0,3.0,59,0.00,,---,0.03,74.00,VWS V14.01,2013-02-16 20:29:00,
2013-02-16 15:32:00,34.8,20.7,29.83,NE,55,1.0,2.0,56,0.00,,---,0.03,81.00,VWS V14.01,2013-02-16 20:32:00,
2013-02-16 15:33:00,34.8,20.7,29.83,NE,40,1.0,4.0,56,0.00,,---,0.03,77.00,VWS V14.01,2013-02-16 20:33:00,
2013-02-16 15:35:00,34.7,20.6,29.83,NNW,340,2.0,4.0,56,0.00,,---,0.03,63.00,VWS V14.01,2013-02-16 20:35:00,
2013-02-16 15:37:00,34.4,21.2,29.83,NE,44,1.0,4.0,58,0.00,,---,0.03,63.00,VWS V14.01,2013-02-16 20:37:00,
2013-02-16 15:38:00,34.4,21.6,29.83,NNW,344,2.0,4.0,59,0.00,,---,0.03,63.00,VWS V14.01,2013-02-16 20:38:00,
2013-02-16 15:40:00,34.3,20.7,29.83,North,351,2.0,5.0,57,0.00,,---,0.03,58.00,VWS V14.01,2013-02-16 20:40:00,
2013-02-16 15:42:00,34.2,20.1,29.83,North,350,1.0,1.0,56,0.00,,---,0.03,53.00,VWS V14.01,2013-02-16 20:42:00,
2013-02-16 15:43:00,34.2,20.6,29.84,WSW,257,2.0,2.0,57,0.00,,---,0.03,53.00,VWS V14.01,2013-02-16 20:43:00,
2013-02-16 15:44:00,34.2,20.6,29.84,WSW,257,0.0,2.0,57,0.00,,---,0.03,53.00,VWS V14.01,2013-02-16 20:44:00,
2013-02-16 15:45:00,34.2,22.2,29.84,North,5,2.0,3.0,61,0.00,,---,0.03,53.00,VWS V14.01,2013-02-16 20:45:00,
2013-02-16 15:47:00,34.1,21.3,29.84,NNE,24,4.0,4.0,59,0.00,,---,0.03,49.00,VWS V14.01,2013-02-16 20:47:00,
2013-02-16 15:48:00,34.1,20.5,29.84,North,349,0.0,4.0,57,0.00,,---,0.03,51.00,VWS V14.01,2013-02-16 20:48:00,
2013-02-16 15:49:00,34.1,20.5,29.84,North,349,0.0,4.0,57,0.00,,---,0.03,54.00,VWS V14.01,2013-02-16 20:49:00,
2013-02-16 15:50:00,34.0,20.0,29.84,North,349,0.0,4.0,56,0.00,,---,0.03,62.00,VWS V14.01,2013-02-16 20:50:00,
2013-02-16 15:52:00,34.0,20.0,29.84,NNW,333,0.0,1.0,56,0.00,,---,0.03,81.00,VWS V14.01,2013-02-16 20:52:00,
2013-02-16 15:53:00,34.0,20.0,29.84,NNW,333,0.0,1.0,56,0.00,,---,0.03,83.00,VWS V14.01,2013-02-16 20:53:00,
2013-02-16 15:54:00,34.0,21.2,29.84,NNW,333,0.0,1.0,59,0.00,,---,0.03,84.00,VWS V14.01,2013-02-16 20:54:00,
2013-02-16 15:55:00,34.0,21.2,29.84,NNW,331,2.0,2.0,59,0.00,,---,0.03,84.00,VWS V14.01,2013-02-16 20:55:00,
2013-02-16 15:57:00,33.9,20.7,29.84,North,5,2.0,3.0,58,0.00,,---,0.03,77.00,VWS V14.01,2013-02-16 20:57:00,
2013-02-16 15:58:00,33.9,20.7,29.84,NNE,32,1.0,3.0,58,0.00,,---,0.03,72.00,VWS V14.01,2013-02-16 20:58:00,
2013-02-16 15:59:00,33.9,19.9,29.84,North,355,2.0,3.0,56,0.00,,---,0.03,72.00,VWS V14.01,2013-02-16 20:59:00,
2013-02-16 16:00:00,33.9,19.9,29.84,NNW,342,2.0,3.0,56,0.00,,---,0.03,63.00,VWS V14.01,2013-02-16 21:00:00,
2013-02-16 16:02:00,33.7,20.1,29.85,NNW,340,0.0,2.0,57,0.00,,---,0.03,40.00,VWS V14.01,2013-02-16 21:02:00,
2013-02-16 16:03:00,33.7,20.1,29.85,NNE,25,1.0,3.0,57,0.00,,---,0.03,32.00,VWS V14.01,2013-02-16 21:03:00,
2013-02-16 16:04:00,33.7,20.1,29.85,NNE,28,1.0,3.0,57,0.00,,---,0.03,32.00,VWS V14.01,2013-02-16 21:04:00,
2013-02-16 16:05:00,33.7,20.1,29.85,NNE,23,2.0,3.0,57,0.00,,---,0.03,23.00,VWS V14.01,2013-02-16 21:05:00,
2013-02-16 16:07:00,33.5,20.3,29.84,NE,38,0.0,3.0,58,0.00,,---,0.03,21.00,VWS V14.01,2013-02-16 21:07:00,
2013-02-16 16:08:00,33.5,21.1,29.85,NE,38,1.0,3.0,60,0.00,,---,0.03,26.00,VWS V14.01,2013-02-16 21:08:00,
2013-02-16 16:09:00,33.4,20.6,29.85,NE,37,1.0,3.0,59,0.00,,---,0.03,30.00,VWS V14.01,2013-02-16 21:09:00,
2013-02-16 16:10:00,33.4,20.2,29.84,NE,37,1.0,3.0,58,0.00,,---,0.03,30.00,VWS V14.01,2013-02-16 21:10:00,
2013-02-16 16:12:00,33.3,20.1,29.84,North,5,1.0,3.0,58,0.00,,---,0.03,40.00,VWS V14.01,2013-02-16 21:12:00,
2013-02-16 16:14:00,33.3,20.1,29.84,NNW,335,3.0,3.0,58,0.00,,---,0.03,54.00,VWS V14.01,2013-02-16 21:14:00,
2013-02-16 16:15:00,33.3,20.5,29.84,NNW,339,1.0,3.0,59,0.00,,---,0.03,58.00,VWS V14.01,2013-02-16 21:15:00,
2013-02-16 16:17:00,33.2,20.0,29.84,North,360,0.0,3.0,58,0.00,,---,0.03,49.00,VWS V14.01,2013-02-16 21:17:00,
2013-02-16 16:19:00,33.2,20.4,29.84,NW,321,1.0,3.0,59,0.00,,---,0.03,39.00,VWS V14.01,2013-02-16 21:19:00,
2013-02-16 16:20:00,33.2,20.4,29.84,NW,323,0.0,3.0,59,0.00,,---,0.03,33.00,VWS V14.01,2013-02-16 21:20:00,
2013-02-16 16:23:00,33.1,20.4,29.84,NE,44,1.0,2.0,59,0.00,,---,0.03,23.00,VWS V14.01,2013-02-16 21:23:00,
2013-02-16 16:24:00,33.1,20.7,29.84,NNE,24,0.0,2.0,60,0.00,,---,0.03,21.00,VWS V14.01,2013-02-16 21:24:00,
2013-02-16 16:25:00,33.0,20.2,29.84,NE,34,0.0,2.0,59,0.00,,---,0.03,21.00,VWS V14.01,2013-02-16 21:25:00,
2013-02-16 16:28:00,33.0,20.6,29.84,NNW,333,2.0,3.0,60,0.00,,---,0.03,21.00,VWS V14.01,2013-02-16 21:28:00,
2013-02-16 16:29:00,32.9,20.5,29.84,NNW,333,0.0,3.0,60,0.00,,---,0.03,21.00,VWS V14.01,2013-02-16 21:29:00,
2013-02-16 16:30:00,32.9,20.9,29.84,NNW,333,0.0,3.0,61,0.00,,---,0.03,19.00,VWS V14.01,2013-02-16 21:30:00,
2013-02-16 16:33:00,32.8,20.5,29.84,North,355,1.0,1.0,60,0.00,,---,0.03,18.00,VWS V14.01,2013-02-16 21:33:00,
2013-02-16 16:34:00,32.8,20.9,29.84,North,355,0.0,1.0,61,0.00,,---,0.03,18.00,VWS V14.01,2013-02-16 21:34:00,
2013-02-16 16:35:00,32.8,21.6,29.84,North,355,0.0,1.0,63,0.00,,---,0.03,19.00,VWS V14.01,2013-02-16 21:35:00,
2013-02-16 16:38:00,32.7,21.1,29.84,North,355,0.0,1.0,62,0.00,,---,0.03,21.00,VWS V14.01,2013-02-16 21:38:00,
2013-02-16 16:39:00,32.7,20.8,29.84,North,355,1.0,1.0,61,0.00,,---,0.03,23.00,VWS V14.01,2013-02-16 21:39:00,
2013-02-16 16:40:00,32.7,21.1,29.84,North,355,0.0,1.0,62,0.00,,---,0.03,23.00,VWS V14.01,2013-02-16 21:40:00,
2013-02-16 16:41:00,32.7,21.5,29.84,North,355,1.0,1.0,63,0.00,,---,0.03,23.00,VWS V14.01,2013-02-16 21:41:00,
2013-02-16 16:43:00,32.6,21.8,29.83,NNE,15,0.0,1.0,64,0.00,,---,0.03,23.00,VWS V14.01,2013-02-16 21:43:00,
2013-02-16 16:44:00,32.6,21.4,29.84,NNE,15,0.0,1.0,63,0.00,,---,0.03,23.00,VWS V14.01,2013-02-16 21:44:00,
2013-02-16 16:45:00,32.6,21.0,29.83,NNE,15,0.0,1.0,62,0.00,,---,0.03,21.00,VWS V14.01,2013-02-16 21:45:00,
2013-02-16 16:46:00,32.6,21.4,29.83,NNE,14,0.0,2.0,63,0.00,,---,0.03,19.00,VWS V14.01,2013-02-16 21:46:00,
2013-02-16 16:48:00,32.5,20.9,29.83,North,350,0.0,3.0,62,0.00,,---,0.03,14.00,VWS V14.01,2013-02-16 21:48:00,
2013-02-16 16:49:00,32.5,20.6,29.83,North,350,0.0,3.0,61,0.00,,---,0.03,12.00,VWS V14.01,2013-02-16 21:49:00,
2013-02-16 16:50:00,32.5,20.9,29.83,North,350,1.0,3.0,62,0.00,,---,0.03,12.00,VWS V14.01,2013-02-16 21:50:00,
2013-02-16 16:51:00,32.5,20.9,29.83,NNW,327,2.0,3.0,62,0.00,,---,0.03,11.00,VWS V14.01,2013-02-16 21:51:00,
2013-02-16 16:53:00,32.4,20.5,29.83,NNW,331,0.0,2.0,61,0.00,,---,0.03,11.00,VWS V14.01,2013-02-16 21:53:00,
2013-02-16 16:54:00,32.4,20.9,29.83,NNW,336,0.0,2.0,62,0.00,,---,0.03,11.00,VWS V14.01,2013-02-16 21:54:00,
2013-02-16 16:55:00,32.4,20.9,29.83,NNW,336,2.0,2.0,62,0.00,,---,0.03,11.00,VWS V14.01,2013-02-16 21:55:00,
2013-02-16 16:56:00,32.4,20.9,29.83,NNW,346,1.0,2.0,62,0.00,,---,0.03,12.00,VWS V14.01,2013-02-16 21:56:00,
2013-02-16 16:58:00,32.3,20.4,29.83,NNE,24,0.0,3.0,61,0.00,,---,0.03,11.00,VWS V14.01,2013-02-16 21:58:00,
2013-02-16 17:00:00,32.3,20.8,29.83,NNE,24,1.0,3.0,62,0.00,,---,0.03,9.00,VWS V14.01,2013-02-16 22:00:00,
2013-02-16 17:01:00,32.3,20.4,29.83,NNE,24,0.0,3.0,61,0.00,,---,0.03,7.00,VWS V14.01,2013-02-16 22:01:00,
2013-02-16 17:03:00,32.3,20.4,29.83,NNE,13,0.0,1.0,61,0.00,,---,0.03,5.00,VWS V14.01,2013-02-16 22:03:00,
2013-02-16 17:05:00,32.3,20.8,29.82,North,9,0.0,3.0,62,0.00,,---,0.03,5.00,VWS V14.01,2013-02-16 22:05:00,
2013-02-16 17:07:00,32.3,20.4,29.82,NNW,340,1.0,3.0,61,0.00,,---,0.03,0.00,VWS V14.01,2013-02-16 22:07:00,
2013-02-16 17:08:00,32.2,20.3,29.82,NNW,340,2.0,3.0,61,0.00,,---,0.03,0.00,VWS V14.01,2013-02-16 22:08:00,
2013-02-16 17:10:00,32.2,21.0,29.83,NE,48,1.0,3.0,63,0.00,,---,0.03,0.00,VWS V14.01,2013-02-16 22:10:00,
2013-02-16 17:12:00,32.1,20.2,29.82,NNE,23,0.0,3.0,61,0.00,,---,0.03,0.00,VWS V14.01,2013-02-16 22:12:00,
2013-02-16 17:13:00,32.1,20.2,29.83,North,355,1.0,3.0,61,0.00,,---,0.03,0.00,VWS V14.01,2013-02-16 22:13:00,
2013-02-16 17:15:00,32.1,21.3,29.83,NW,321,0.0,3.0,64,0.00,,---,0.03,0.00,VWS V14.01,2013-02-16 22:15:00,
2013-02-16 17:17:00,32.0,20.5,29.83,NE,35,1.0,4.0,62,0.00,,---,0.03,0.00,VWS V14.01,2013-02-16 22:17:00,
2013-02-16 17:18:00,32.0,20.5,29.83,NNE,31,0.0,4.0,62,0.00,,---,0.03,0.00,VWS V14.01,2013-02-16 22:18:00,
2013-02-16 17:20:00,32.0,20.9,29.83,NNE,31,0.0,4.0,63,0.00,,---,0.03,0.00,VWS V14.01,2013-02-16 22:20:00,
2013-02-16 17:22:00,32.0,20.5,29.83,North,355,3.0,3.0,62,0.00,,---,0.03,0.00,VWS V14.01,2013-02-16 22:22:00,
2013-02-16 17:24:00,32.0,20.5,29.83,North,355,1.0,3.0,62,0.00,,---,0.03,0.00,VWS V14.01,2013-02-16 22:24:00,
2013-02-16 17:25:00,31.9,20.0,29.83,NNE,32,0.0,3.0,61,0.00,,---,0.03,0.00,VWS V14.01,2013-02-16 22:25:00,
2013-02-16 17:27:00,31.9,20.8,29.83,NNE,31,0.0,3.0,63,0.00,,---,0.03,0.00,VWS V14.01,2013-02-16 22:27:00,
2013-02-16 17:29:00,31.8,20.3,29.83,NNW,344,2.0,3.0,62,0.00,,---,0.03,0.00,VWS V14.01,2013-02-16 22:29:00,
2013-02-16 17:30:00,31.8,20.7,29.83,NNW,346,1.0,3.0,63,0.00,,---,0.03,0.00,VWS V14.01,2013-02-16 22:30:00,
2013-02-16 17:31:00,31.8,19.9,29.83,NNW,339,4.0,4.0,61,0.00,,---,0.03,0.00,VWS V14.01,2013-02-16 22:31:00,
2013-02-16 17:32:00,31.7,19.8,29.82,North,5,0.0,0.0,61,0.00,,---,0.03,0.00,VWS V14.01,2013-02-16 22:32:00,
2013-02-16 17:34:00,31.7,19.8,29.82,NNW,340,2.0,4.0,61,0.00,,---,0.03,0.00,VWS V14.01,2013-02-16 22:34:00,
2013-02-16 17:35:00,31.7,19.4,29.82,NNE,22,2.0,4.0,60,0.00,,---,0.03,0.00,VWS V14.01,2013-02-16 22:35:00,
2013-02-16 17:36:00,31.6,20.1,29.82,North,360,1.0,5.0,62,0.00,,---,0.03,0.00,VWS V14.01,2013-02-16 22:36:00,
2013-02-16 17:37:00,31.6,19.7,29.82,North,360,0.0,5.0,61,0.00,,---,0.03,0.00,VWS V14.01,2013-02-16 22:37:00,
2013-02-16 17:39:00,31.5,20.0,29.82,North,5,4.0,5.0,62,0.00,,---,0.03,0.00,VWS V14.01,2013-02-16 22:39:00,
2013-02-16 17:40:00,31.5,19.6,29.82,NNE,12,3.0,5.0,61,0.00,,---,0.03,0.00,VWS V14.01,2013-02-16 22:40:00,
2013-02-16 17:41:00,31.5,20.0,29.82,NNE,32,2.0,6.0,62,0.00,,---,0.03,0.00,VWS V14.01,2013-02-16 22:41:00,
2013-02-16 17:42:00,31.5,19.6,29.82,NE,42,1.0,3.0,61,0.00,,---,0.03,0.00,VWS V14.01,2013-02-16 22:42:00,
2013-02-16 17:44:00,31.5,20.7,29.82,NNE,22,1.0,4.0,64,0.00,,---,0.03,0.00,VWS V14.01,2013-02-16 22:44:00,
2013-02-16 17:45:00,31.4,20.6,29.82,NNE,19,0.0,4.0,64,0.00,,---,0.03,0.00,VWS V14.01,2013-02-16 22:45:00,
2013-02-16 17:46:00,31.4,20.6,29.82,NNW,338,0.0,4.0,64,0.00,,---,0.03,0.00,VWS V14.01,2013-02-16 22:46:00,
2013-02-16 17:47:00,31.4,20.3,29.82,NNW,332,2.0,4.0,63,0.00,,---,0.03,0.00,VWS V14.01,2013-02-16 22:47:00,
2013-02-16 17:50:00,31.3,19.4,29.82,NNE,13,3.0,4.0,61,0.00,,---,0.03,0.00,VWS V14.01,2013-02-16 22:50:00,
2013-02-16 17:51:00,31.3,19.4,29.82,NNW,348,1.0,4.0,61,0.00,,---,0.03,0.00,VWS V14.01,2013-02-16 22:51:00,
2013-02-16 17:52:00,31.3,20.2,29.82,NNW,348,0.0,1.0,63,0.00,,---,0.03,0.00,VWS V14.01,2013-02-16 22:52:00,
2013-02-16 17:55:00,31.2,20.1,29.82,North,5,0.0,3.0,63,0.00,,---,0.03,0.00,VWS V14.01,2013-02-16 22:55:00,
2013-02-16 17:56:00,31.2,20.5,29.82,North,5,0.0,3.0,64,0.00,,---,0.03,0.00,VWS V14.01,2013-02-16 22:56:00,
2013-02-16 17:57:00,31.2,20.5,29.82,NE,36,2.0,3.0,64,0.00,,---,0.03,0.00,VWS V14.01,2013-02-16 22:57:00,
2013-02-16 18:01:00,31.2,19.7,29.82,North,349,0.0,5.0,62,0.00,,---,0.03,0.00,VWS V14.01,2013-02-16 23:01:00,
2013-02-16 18:02:00,31.1,20.4,29.82,North,355,2.0,2.0,64,0.00,,---,0.03,0.00,VWS V14.01,2013-02-16 23:02:00,
2013-02-16 18:06:00,31.1,19.6,29.82,NNW,344,2.0,5.0,62,0.00,,---,0.03,0.00,VWS V14.01,2013-02-16 23:06:00,
2013-02-16 18:07:00,31.1,20.0,29.82,North,349,0.0,5.0,63,0.00,,---,0.03,0.00,VWS V14.01,2013-02-16 23:07:00,
2013-02-16 18:11:00,31.0,20.3,29.82,WSW,238,0.0,5.0,64,0.00,,---,0.03,0.00,VWS V14.01,2013-02-16 23:11:00,
2013-02-16 18:12:00,31.0,19.9,29.82,North,5,1.0,2.0,63,0.00,,---,0.03,0.00,VWS V14.01,2013-02-16 23:12:00,
2013-02-16 18:16:00,30.9,19.8,29.82,NE,34,1.0,4.0,63,0.00,,---,0.03,0.00,VWS V14.01,2013-02-16 23:16:00,
2013-02-16 18:17:00,30.9,19.8,29.82,North,360,0.0,4.0,63,0.00,,---,0.03,0.00,VWS V14.01,2013-02-16 23:17:00,
2013-02-16 18:21:00,30.9,20.2,29.82,North,360,0.0,4.0,64,0.00,,---,0.03,0.00,VWS V14.01,2013-02-16 23:21:00,
2013-02-16 18:22:00,30.9,19.8,29.82,North,360,0.0,0.0,63,0.00,,---,0.03,0.00,VWS V14.01,2013-02-16 23:22:00,
2013-02-16 18:23:00,30.9,20.5,29.82,North,360,1.0,2.0,65,0.00,,---,0.03,0.00,VWS V14.01,2013-02-16 23:23:00,
2013-02-16 18:26:00,30.8,19.7,29.82,North,5,0.0,2.0,63,0.00,,---,0.03,0.00,VWS V14.01,2013-02-16 23:26:00,
2013-02-16 18:27:00,30.8,19.7,29.82,North,5,3.0,3.0,63,0.00,,---,0.03,0.00,VWS V14.01,2013-02-16 23:27:00,
2013-02-16 18:28:00,30.8,19.7,29.82,North,5,0.0,3.0,63,0.00,,---,0.03,0.00,VWS V14.01,2013-02-16 23:28:00,
2013-02-16 18:31:00,30.8,19.7,29.82,NNE,15,0.0,3.0,63,0.00,,---,0.03,0.00,VWS V14.01,2013-02-16 23:31:00,
2013-02-16 18:32:00,30.8,20.4,29.82,NNE,15,2.0,2.0,65,0.00,,---,0.03,0.00,VWS V14.01,2013-02-16 23:32:00,
2013-02-16 18:33:00,30.8,20.1,29.82,North,355,0.0,2.0,64,0.00,,---,0.03,0.00,VWS V14.01,2013-02-16 23:33:00,
2013-02-16 18:36:00,30.7,20.0,29.82,North,5,2.0,2.0,64,0.00,,---,0.03,0.00,VWS V14.01,2013-02-16 23:36:00,
2013-02-16 18:37:00,30.7,20.0,29.82,NNW,340,3.0,3.0,64,0.00,,---,0.03,0.00,VWS V14.01,2013-02-16 23:37:00,
2013-02-16 18:38:00,30.7,19.6,29.82,North,355,2.0,3.0,63,0.00,,---,0.03,0.00,VWS V14.01,2013-02-16 23:38:00,
2013-02-16 18:41:00,30.7,19.6,29.81,WNW,302,0.0,4.0,63,0.00,,---,0.03,0.00,VWS V14.01,2013-02-16 23:41:00,
2013-02-16 18:42:00,30.7,19.6,29.81,NW,319,1.0,1.0,63,0.00,,---,0.03,0.00,VWS V14.01,2013-02-16 23:42:00,
2013-02-16 18:43:00,30.6,19.1,29.81,NNE,32,2.0,2.0,62,0.00,,---,0.03,0.00,VWS V14.01,2013-02-16 23:43:00,
2013-02-16 18:46:00,30.6,18.8,29.81,NNE,30,0.0,3.0,61,0.00,,---,0.03,0.00,VWS V14.01,2013-02-16 23:46:00,
2013-02-16 18:47:00,30.6,19.5,29.81,NNE,17,3.0,3.0,63,0.00,,---,0.03,0.00,VWS V14.01,2013-02-16 23:47:00,
2013-02-16 18:48:00,30.6,19.9,29.81,North,355,3.0,3.0,64,0.00,,---,0.03,0.00,VWS V14.01,2013-02-16 23:48:00,
2013-02-16 18:51:00,30.6,19.1,29.81,North,350,3.0,4.0,62,0.00,,---,0.03,0.00,VWS V14.01,2013-02-16 23:51:00,
2013-02-16 18:52:00,30.6,19.1,29.82,North,5,0.0,1.0,62,0.00,,---,0.03,0.00,VWS V14.01,2013-02-16 23:52:00,
2013-02-16 18:53:00,30.6,19.1,29.82,NNE,18,0.0,3.0,62,0.00,,---,0.03,0.00,VWS V14.01,2013-02-16 23:53:00,
2013-02-16 18:56:00,30.5,19.0,29.82,North,5,0.0,3.0,62,0.00,,---,0.03,0.00,VWS V14.01,2013-02-16 23:56:00,
2013-02-16 18:57:00,30.5,19.4,29.82,North,5,1.0,3.0,63,0.00,,---,0.03,0.00,VWS V14.01,2013-02-16 23:57:00,
2013-02-16 18:59:00,30.5,19.4,29.81,NW,326,1.0,4.0,63,0.00,,---,0.03,0.00,VWS V14.01,2013-02-16 23:59:00,
2013-02-16 19:01:00,30.4,19.3,29.81,NNW,336,0.0,4.0,63,0.00,,---,0.03,0.00,VWS V14.01,2013-02-17 00:01:00,
2013-02-16 19:02:00,30.4,19.7,29.81,North,360,3.0,3.0,64,0.00,,---,0.03,0.00,VWS V14.01,2013-02-17 00:02:00,
2013-02-16 19:03:00,30.4,19.7,29.81,North,355,2.0,3.0,64,0.00,,---,0.03,0.00,VWS V14.01,2013-02-17 00:03:00,
2013-02-16 19:04:00,30.4,19.0,29.81,North,349,0.0,3.0,62,0.00,,---,0.03,0.00,VWS V14.01,2013-02-17 00:04:00,
2013-02-16 19:06:00,30.4,19.0,29.81,NNW,338,2.0,3.0,62,0.00,,---,0.03,0.00,VWS V14.01,2013-02-17 00:06:00,
2013-02-16 19:08:00,30.4,18.6,29.81,NNW,346,1.0,3.0,61,0.00,,---,0.03,0.00,VWS V14.01,2013-02-17 00:08:00,
2013-02-16 19:09:00,30.3,18.5,29.81,NNW,346,0.0,3.0,61,0.00,,---,0.03,0.00,VWS V14.01,2013-02-17 00:09:00,
2013-02-16 19:11:00,30.3,18.9,29.81,ENE,72,0.0,3.0,62,0.00,,---,0.03,0.00,VWS V14.01,2013-02-17 00:11:00,
2013-02-16 19:13:00,30.3,18.9,29.81,ENE,72,0.0,0.0,62,0.00,,---,0.03,0.00,VWS V14.01,2013-02-17 00:13:00,
2013-02-16 19:14:00,30.3,18.9,29.81,ENE,58,0.0,1.0,62,0.00,,---,0.03,0.00,VWS V14.01,2013-02-17 00:14:00,
2013-02-16 19:16:00,30.3,18.9,29.82,NNE,25,0.0,2.0,62,0.00,,---,0.03,0.00,VWS V14.01,2013-02-17 00:16:00,
2013-02-16 19:18:00,30.3,18.9,29.82,NNE,25,0.0,2.0,62,0.00,,---,0.03,0.00,VWS V14.01,2013-02-17 00:18:00,
2013-02-16 19:19:00,30.3,19.2,29.82,NNE,30,1.0,2.0,63,0.00,,---,0.03,0.00,VWS V14.01,2013-02-17 00:19:00,
2013-02-16 19:21:00,30.3,19.2,29.82,NE,46,1.0,2.0,63,0.00,,---,0.03,0.00,VWS V14.01,2013-02-17 00:21:00,
2013-02-16 19:23:00,30.2,18.8,29.82,NNE,27,0.0,2.0,62,0.00,,---,0.03,0.00,VWS V14.01,2013-02-17 00:23:00,
2013-02-16 19:24:00,30.3,19.6,29.82,NNE,22,1.0,2.0,64,0.00,,---,0.03,0.00,VWS V14.01,2013-02-17 00:24:00,
2013-02-16 19:27:00,30.2,18.4,29.82,North,5,0.0,3.0,61,0.00,,---,0.03,0.00,VWS V14.01,2013-02-17 00:27:00,
2013-02-16 19:28:00,30.2,18.8,29.82,North,5,0.0,3.0,62,0.00,,---,0.03,0.00,VWS V14.01,2013-02-17 00:28:00,
2013-02-16 19:29:00,30.2,18.8,29.82,NNW,345,0.0,3.0,62,0.00,,---,0.03,0.00,VWS V14.01,2013-02-17 00:29:00,
2013-02-16 19:32:00,30.2,18.4,29.82,NNW,338,0.0,1.0,61,0.00,,---,0.03,0.00,VWS V14.01,2013-02-17 00:32:00,
2013-02-16 19:33:00,30.2,18.8,29.82,NNE,24,1.0,2.0,62,0.00,,---,0.03,0.00,VWS V14.01,2013-02-17 00:33:00,
2013-02-16 19:34:00,30.2,18.4,29.82,NNE,13,1.0,2.0,61,0.00,,---,0.03,0.00,VWS V14.01,2013-02-17 00:34:00,
2013-02-16 19:37:00,30.1,17.9,29.82,NNE,13,0.0,2.0,60,0.00,,---,0.03,0.00,VWS V14.01,2013-02-17 00:37:00,
2013-02-16 19:39:00,30.1,18.7,29.82,NNE,13,0.0,2.0,62,0.00,,---,0.03,0.00,VWS V14.01,2013-02-17 00:39:00,
2013-02-16 19:42:00,30.1,18.3,29.82,NNE,24,0.0,0.0,61,0.00,,---,0.03,0.00,VWS V14.01,2013-02-17 00:42:00,
2013-02-16 19:44:00,30.1,18.3,29.82,North,11,2.0,3.0,61,0.00,,---,0.03,0.00,VWS V14.01,2013-02-17 00:44:00,
2013-02-16 19:47:00,30.0,17.8,29.82,NE,40,1.0,3.0,60,0.00,,---,0.03,0.00,VWS V14.01,2013-02-17 00:47:00,
2013-02-16 19:49:00,30.0,17.4,29.82,NNW,333,0.0,3.0,59,0.00,,---,0.03,0.00,VWS V14.01,2013-02-17 00:49:00,
2013-02-16 19:52:00,29.9,17.3,29.82,WNW,283,1.0,1.0,59,0.00,,---,0.03,0.00,VWS V14.01,2013-02-17 00:52:00,
2013-02-16 19:54:00,29.9,17.7,29.82,North,350,0.0,4.0,60,0.00,,---,0.03,0.00,VWS V14.01,2013-02-17 00:54:00,
2013-02-16 19:57:00,29.9,17.3,29.81,North,5,0.0,4.0,59,0.00,,---,0.03,0.00,VWS V14.01,2013-02-17 00:57:00,
2013-02-16 19:59:00,29.8,16.4,29.81,North,5,1.0,4.0,57,0.00,,---,0.03,0.00,VWS V14.01,2013-02-17 00:59:00,
2013-02-16 20:02:00,29.8,17.2,29.82,NNE,29,2.0,2.0,59,0.00,,---,0.03,0.00,VWS V14.01,2013-02-17 01:02:00,
2013-02-16 20:04:00,29.8,16.8,29.82,North,350,2.0,2.0,58,0.00,,---,0.03,0.00,VWS V14.01,2013-02-17 01:04:00,
2013-02-16 20:07:00,29.7,17.1,29.82,North,350,0.0,3.0,59,0.00,,---,0.03,0.00,VWS V14.01,2013-02-17 01:07:00,
2013-02-16 20:09:00,29.7,16.8,29.82,NE,35,2.0,3.0,58,0.00,,---,0.03,0.00,VWS V14.01,2013-02-17 01:09:00,
2013-02-16 20:12:00,29.7,17.5,29.82,ENE,78,1.0,2.0,60,0.00,,---,0.03,0.00,VWS V14.01,2013-02-17 01:12:00,
2013-02-16 20:14:00,29.7,17.1,29.81,North,10,3.0,6.0,59,0.00,,---,0.03,0.00,VWS V14.01,2013-02-17 01:14:00,
2013-02-16 20:18:00,29.7,17.5,29.81,NNE,18,1.0,6.0,60,0.00,,---,0.03,0.00,VWS V14.01,2013-02-17 01:18:00,
2013-02-16 20:19:00,29.6,17.0,29.81,NNW,345,3.0,6.0,59,0.00,,---,0.03,0.00,VWS V14.01,2013-02-17 01:19:00,
2013-02-16 20:20:00,29.6,17.0,29.81,NNE,13,4.0,6.0,59,0.00,,---,0.03,0.00,VWS V14.01,2013-02-17 01:20:00,
2013-02-16 20:23:00,29.6,17.4,29.82,North,351,4.0,4.0,60,0.00,,---,0.03,0.00,VWS V14.01,2013-02-17 01:23:00,
2013-02-16 20:24:00,29.5,17.7,29.81,NNE,27,2.0,5.0,61,0.00,,---,0.03,0.00,VWS V14.01,2013-02-17 01:24:00,
2013-02-16 20:25:00,29.5,17.7,29.81,North,350,3.0,5.0,61,0.00,,---,0.03,0.00,VWS V14.01,2013-02-17 01:25:00,
2013-02-16 20:28:00,29.4,18.0,29.82,WSW,258,1.0,5.0,62,0.00,,---,0.03,0.00,VWS V14.01,2013-02-17 01:28:00,
2013-02-16 20:30:00,29.2,17.8,29.82,NW,325,0.0,5.0,62,0.00,,---,0.03,0.00,VWS V14.01,2013-02-17 01:30:00,
2013-02-16 20:33:00,29.2,18.2,29.82,NW,321,0.0,3.0,63,0.00,,---,0.03,0.00,VWS V14.01,2013-02-17 01:33:00,
2013-02-16 20:35:00,29.1,18.1,29.81,NNW,340,0.0,4.0,63,0.00,,---,0.03,0.00,VWS V14.01,2013-02-17 01:35:00,
2013-02-16 20:38:00,29.0,18.4,29.81,North,355,0.0,4.0,64,0.00,,---,0.03,0.00,VWS V14.01,2013-02-17 01:38:00,
2013-02-16 20:40:00,29.0,18.4,29.81,NNW,348,3.0,4.0,64,0.00,,---,0.03,0.00,VWS V14.01,2013-02-17 01:40:00,
2013-02-16 20:43:00,28.9,18.6,29.80,North,355,4.0,5.0,65,0.00,,---,0.03,0.00,VWS V14.01,2013-02-17 01:43:00,
2013-02-16 20:45:00,28.9,19.0,29.80,NNW,344,3.0,5.0,66,0.00,,---,0.03,0.00,VWS V14.01,2013-02-17 01:45:00,
2013-02-16 20:48:00,28.8,19.2,29.80,NW,324,1.0,5.0,67,0.00,,---,0.03,0.00,VWS V14.01,2013-02-17 01:48:00,
2013-02-16 20:50:00,28.7,19.1,29.80,North,5,2.0,5.0,67,0.00,,---,0.03,0.00,VWS V14.01,2013-02-17 01:50:00,
2013-02-16 20:53:00,28.6,18.7,29.80,North,355,1.0,5.0,66,0.00,,---,0.03,0.00,VWS V14.01,2013-02-17 01:53:00,
2013-02-16 20:55:00,28.5,19.3,29.80,NNE,21,2.0,5.0,68,0.00,,---,0.03,0.00,VWS V14.01,2013-02-17 01:55:00,
2013-02-16 20:58:00,28.5,18.6,29.80,North,9,3.0,5.0,66,0.00,,---,0.03,0.00,VWS V14.01,2013-02-17 01:58:00,
2013-02-16 21:00:00,28.5,19.0,29.80,North,355,2.0,5.0,67,0.00,,---,0.03,0.00,VWS V14.01,2013-02-17 02:00:00,
2013-02-16 21:01:00,28.4,18.5,29.80,North,355,2.0,5.0,66,0.00,,---,0.03,0.00,VWS V14.01,2013-02-17 02:01:00,
2013-02-16 21:03:00,28.4,18.5,29.80,NNW,344,2.0,3.0,66,0.00,,---,0.03,0.00,VWS V14.01,2013-02-17 02:03:00,
2013-02-16 21:05:00,28.4,18.9,29.80,NNE,28,2.0,3.0,67,0.00,,---,0.03,0.00,VWS V14.01,2013-02-17 02:05:00,
2013-02-16 21:06:00,28.4,19.2,29.80,NNE,28,0.0,3.0,68,0.00,,---,0.03,0.00,VWS V14.01,2013-02-17 02:06:00,
2013-02-16 21:08:00,28.4,18.9,29.80,NNW,336,4.0,5.0,67,0.00,,---,0.03,0.00,VWS V14.01,2013-02-17 02:08:00,
2013-02-16 21:10:00,28.3,19.1,29.80,NNE,12,1.0,5.0,68,0.00,,---,0.03,0.00,VWS V14.01,2013-02-17 02:10:00,
2013-02-16 21:11:00,28.3,18.8,29.80,NNE,33,3.0,5.0,67,0.00,,---,0.03,0.00,VWS V14.01,2013-02-17 02:11:00,
2013-02-16 21:13:00,28.4,18.9,29.80,North,5,1.0,2.0,67,0.00,,---,0.03,0.00,VWS V14.01,2013-02-17 02:13:00,
2013-02-16 21:15:00,28.3,19.1,29.80,North,355,0.0,2.0,68,0.00,,---,0.03,0.00,VWS V14.01,2013-02-17 02:15:00,
2013-02-16 21:16:00,28.3,19.1,29.80,North,355,1.0,2.0,68,0.00,,---,0.03,0.00,VWS V14.01,2013-02-17 02:16:00,
2013-02-16 21:18:00,28.4,19.2,29.80,North,349,0.0,2.0,68,0.00,,---,0.03,0.00,VWS V14.01,2013-02-17 02:18:00,
2013-02-16 21:20:00,28.4,19.2,29.80,North,5,2.0,3.0,68,0.00,,---,0.03,0.00,VWS V14.01,2013-02-17 02:20:00,
2013-02-16 21:21:00,28.4,19.2,29.80,NNE,13,2.0,3.0,68,0.00,,---,0.03,0.00,VWS V14.01,2013-02-17 02:21:00,
2013-02-16 21:23:00,28.4,18.9,29.80,NNE,16,0.0,2.0,67,0.00,,---,0.03,0.00,VWS V14.01,2013-02-17 02:23:00,
2013-02-16 21:25:00,28.4,19.2,29.80,North,9,2.0,4.0,68,0.00,,---,0.03,0.00,VWS V14.01,2013-02-17 02:25:00,
2013-02-16 21:26:00,28.4,18.9,29.80,North,5,1.0,4.0,67,0.00,,---,0.03,0.00,VWS V14.01,2013-02-17 02:26:00,
2013-02-16 21:28:00,28.3,18.8,29.80,NNE,25,1.0,4.0,67,0.00,,---,0.03,0.00,VWS V14.01,2013-02-17 02:28:00,
2013-02-16 21:30:00,28.4,19.2,29.79,North,5,2.0,4.0,68,0.00,,---,0.03,0.00,VWS V14.01,2013-02-17 02:30:00,
2013-02-16 21:31:00,28.3,19.1,29.79,NNW,348,2.0,4.0,68,0.00,,---,0.03,0.00,VWS V14.01,2013-02-17 02:31:00,
2013-02-16 21:32:00,28.3,19.1,29.79,North,355,2.0,2.0,68,0.00,,---,0.03,0.00,VWS V14.01,2013-02-17 02:32:00,
2013-02-16 21:33:00,28.3,19.1,29.79,West,268,0.0,4.0,68,0.00,,---,0.03,0.00,VWS V14.01,2013-02-17 02:33:00,
2013-02-16 21:36:00,28.3,19.1,29.79,NNW,331,0.0,5.0,68,0.00,,---,0.03,0.00,VWS V14.01,2013-02-17 02:36:00,
2013-02-16 21:37:00,28.3,18.8,29.79,NNW,331,1.0,5.0,67,0.00,,---,0.03,0.00,VWS V14.01,2013-02-17 02:37:00,
2013-02-16 21:38:00,28.3,19.5,29.79,North,350,2.0,5.0,69,0.00,,---,0.03,0.00,VWS V14.01,2013-02-17 02:38:00,
2013-02-16 21:41:00,28.2,18.7,29.79,NNE,13,1.0,6.0,67,0.00,,---,0.03,0.00,VWS V14.01,2013-02-17 02:41:00,
2013-02-16 21:42:00,28.2,19.0,29.79,NNE,13,2.0,2.0,68,0.00,,---,0.03,0.00,VWS V14.01,2013-02-17 02:42:00,
2013-02-16 21:43:00,28.2,19.0,29.79,NE,39,2.0,3.0,68,0.00,,---,0.03,0.00,VWS V14.01,2013-02-17 02:43:00,
2013-02-16 21:46:00,28.2,18.7,29.79,North,9,3.0,4.0,67,0.00,,---,0.03,0.00,VWS V14.01,2013-02-17 02:46:00,
2013-02-16 21:47:00,28.2,18.7,29.79,North,351,3.0,4.0,67,0.00,,---,0.03,0.00,VWS V14.01,2013-02-17 02:47:00,
2013-02-16 21:49:00,28.2,19.0,29.79,NW,306,1.0,4.0,68,0.00,,---,0.03,0.00,VWS V14.01,2013-02-17 02:49:00,
2013-02-16 21:51:00,28.2,19.0,29.78,East,83,3.0,4.0,68,0.00,,---,0.03,0.00,VWS V14.01,2013-02-17 02:51:00,
2013-02-16 21:52:00,28.1,18.6,29.78,NNW,348,4.0,5.0,67,0.00,,---,0.03,0.00,VWS V14.01,2013-02-17 02:52:00,
2013-02-16 21:54:00,28.1,18.2,29.78,ENE,65,1.0,5.0,66,0.00,,---,0.03,0.00,VWS V14.01,2013-02-17 02:54:00,
2013-02-16 21:56:00,28.1,18.6,29.78,North,355,6.0,6.0,67,0.00,,---,0.03,0.00,VWS V14.01,2013-02-17 02:56:00,
2013-02-16 21:57:00,28.1,18.6,29.79,NNW,338,4.0,7.0,67,0.00,,---,0.03,0.00,VWS V14.01,2013-02-17 02:57:00,
2013-02-16 21:59:00,28.1,18.6,29.78,NNW,345,2.0,7.0,67,0.00,,---,0.03,0.00,VWS V14.01,2013-02-17 02:59:00,
2013-02-16 22:01:00,28.1,18.9,29.78,North,5,2.0,7.0,68,0.00,,---,0.03,0.00,VWS V14.01,2013-02-17 03:01:00,
2013-02-16 22:02:00,28.1,18.9,29.78,North,5,0.0,0.0,68,0.00,,---,0.03,0.00,VWS V14.01,2013-02-17 03:02:00,
2013-02-16 22:04:00,28.1,18.6,29.78,NNW,338,2.0,5.0,67,0.00,,---,0.03,0.00,VWS V14.01,2013-02-17 03:04:00,
2013-02-16 22:06:00,28.1,18.6,29.78,NNW,343,2.0,5.0,67,0.00,,---,0.03,0.00,VWS V14.01,2013-02-17 03:06:00,
2013-02-16 22:07:00,28.1,18.6,29.78,North,350,2.0,5.0,67,0.00,,---,0.03,0.00,VWS V14.01,2013-02-17 03:07:00,
2013-02-16 22:09:00,28.1,18.2,29.78,NNW,340,0.0,5.0,66,0.00,,---,0.03,0.00,VWS V14.01,2013-02-17 03:09:00,
2013-02-16 22:11:00,28.1,18.2,29.77,North,360,1.0,5.0,66,0.00,,---,0.03,0.00,VWS V14.01,2013-02-17 03:11:00,
2013-02-16 22:12:00,28.1,18.2,29.77,North,355,3.0,4.0,66,0.00,,---,0.03,0.00,VWS V14.01,2013-02-17 03:12:00,
2013-02-16 22:14:00,28.1,18.2,29.77,NE,44,1.0,4.0,66,0.00,,---,0.03,0.00,VWS V14.01,2013-02-17 03:14:00,
2013-02-16 22:16:00,28.1,18.2,29.77,North,355,0.0,4.0,66,0.00,,---,0.03,0.00,VWS V14.01,2013-02-17 03:16:00,
2013-02-16 22:17:00,28.1,18.6,29.77,North,355,3.0,4.0,67,0.00,,---,0.03,0.00,VWS V14.01,2013-02-17 03:17:00,
2013-02-16 22:19:00,28.1,18.2,29.77,ENE,57,2.0,5.0,66,0.00,,---,0.03,0.00,VWS V14.01,2013-02-17 03:19:00,
2013-02-16 22:21:00,28.1,17.5,29.77,West,262,0.0,5.0,64,0.00,,---,0.03,0.00,VWS V14.01,2013-02-17 03:21:00,
2013-02-16 22:22:00,28.2,18.3,29.77,NNE,13,2.0,3.0,66,0.00,,---,0.03,0.00,VWS V14.01,2013-02-17 03:22:00,
2013-02-16 22:23:00,28.2,18.3,29.77,North,5,2.0,3.0,66,0.00,,---,0.03,0.00,VWS V14.01,2013-02-17 03:23:00,
2013-02-16 22:24:00,28.1,17.5,29.76,NNE,29,2.0,5.0,64,0.00,,---,0.03,0.00,VWS V14.01,2013-02-17 03:24:00,
2013-02-16 22:26:00,28.2,17.6,29.76,North,360,2.0,5.0,64,0.00,,---,0.03,0.00,VWS V14.01,2013-02-17 03:26:00,
2013-02-16 22:27:00,28.2,17.6,29.76,North,10,1.0,5.0,64,0.00,,---,0.03,0.00,VWS V14.01,2013-02-17 03:27:00,
2013-02-16 22:28:00,28.2,17.6,29.76,NNE,22,0.0,5.0,64,0.00,,---,0.03,0.00,VWS V14.01,2013-02-17 03:28:00,
2013-02-16 22:30:00,28.2,17.6,29.76,ENE,57,3.0,5.0,64,0.00,,---,0.03,0.00,VWS V14.01,2013-02-17 03:30:00,
2013-02-16 22:31:00,28.2,17.6,29.76,NW,325,3.0,5.0,64,0.00,,---,0.03,0.00,VWS V14.01,2013-02-17 03:31:00,
2013-02-16 22:32:00,28.2,17.2,29.76,SSW,205,1.0,3.0,63,0.00,,---,0.03,0.00,VWS V14.01,2013-02-17 03:32:00,
2013-02-16 22:33:00,28.2,17.2,29.76,SSW,200,0.0,3.0,63,0.00,,---,0.03,0.00,VWS V14.01,2013-02-17 03:33:00,
2013-02-16 22:35:00,28.2,17.2,29.76,North,349,0.0,3.0,63,0.00,,---,0.03,0.00,VWS V14.01,2013-02-17 03:35:00,
2013-02-16 22:37:00,28.3,17.3,29.76,NNW,344,1.0,3.0,63,0.00,,---,0.03,0.00,VWS V14.01,2013-02-17 03:37:00,
2013-02-16 22:38:00,28.3,17.7,29.76,NNW,346,0.0,3.0,64,0.00,,---,0.03,0.00,VWS V14.01,2013-02-17 03:38:00,
2013-02-16 22:40:00,28.3,17.3,29.76,NNW,342,3.0,4.0,63,0.00,,---,0.03,0.00,VWS V14.01,2013-02-17 03:40:00,
2013-02-16 22:42:00,28.3,16.6,29.76,NNW,345,1.0,1.0,61,0.00,,---,0.03,0.00,VWS V14.01,2013-02-17 03:42:00,
2013-02-16 22:43:00,28.3,17.3,29.76,NNW,341,0.0,1.0,63,0.00,,---,0.03,0.00,VWS V14.01,2013-02-17 03:43:00,
2013-02-16 22:45:00,28.3,16.6,29.76,NNE,26,1.0,3.0,61,0.00,,---,0.03,0.00,VWS V14.01,2013-02-17 03:45:00,
2013-02-16 22:47:00,28.3,16.6,29.76,North,5,2.0,5.0,61,0.00,,---,0.03,0.00,VWS V14.01,2013-02-17 03:47:00,
2013-02-16 22:48:00,28.3,16.2,29.75,NW,311,1.0,5.0,60,0.00,,---,0.03,0.00,VWS V14.01,2013-02-17 03:48:00,
2013-02-16 22:50:00,28.3,17.0,29.76,North,9,0.0,5.0,62,0.00,,---,0.03,0.00,VWS V14.01,2013-02-17 03:50:00,
2013-02-16 22:52:00,28.3,16.6,29.75,NNE,29,1.0,2.0,61,0.00,,---,0.03,0.00,VWS V14.01,2013-02-17 03:52:00,
2013-02-16 22:53:00,28.4,16.7,29.75,North,5,2.0,2.0,61,0.00,,---,0.03,0.00,VWS V14.01,2013-02-17 03:53:00,
2013-02-16 22:54:00,28.3,17.0,29.75,ENE,63,1.0,2.0,62,0.00,,---,0.03,0.00,VWS V14.01,2013-02-17 03:54:00,
2013-02-16 22:55:00,28.4,17.1,29.75,NE,36,0.0,2.0,62,0.00,,---,0.03,0.00,VWS V14.01,2013-02-17 03:55:00,
2013-02-16 22:57:00,28.3,17.0,29.74,NNW,329,1.0,6.0,62,0.00,,---,0.03,0.00,VWS V14.01,2013-02-17 03:57:00,
2013-02-16 22:58:00,28.3,16.2,29.74,NNW,338,0.0,6.0,60,0.00,,---,0.03,0.00,VWS V14.01,2013-02-17 03:58:00,
2013-02-16 22:59:00,28.3,16.2,29.75,NNW,338,1.0,6.0,60,0.00,,---,0.03,0.00,VWS V14.01,2013-02-17 03:59:00,
2013-02-16 23:00:00,28.3,17.0,29.75,WSW,251,1.0,6.0,62,0.00,,---,0.03,0.00,VWS V14.01,2013-02-17 04:00:00,
2013-02-16 23:02:00,28.3,16.6,29.74,NNW,340,0.0,3.0,61,0.00,,---,0.03,0.00,VWS V14.01,2013-02-17 04:02:00,
2013-02-16 23:03:00,28.3,17.0,29.74,NNW,328,0.0,3.0,62,0.00,,---,0.03,0.00,VWS V14.01,2013-02-17 04:03:00,
2013-02-16 23:04:00,28.3,17.0,29.74,NNE,27,2.0,3.0,62,0.00,,---,0.03,0.00,VWS V14.01,2013-02-17 04:04:00,
2013-02-16 23:05:00,28.3,17.0,29.74,NW,326,0.0,4.0,62,0.00,,---,0.03,0.00,VWS V14.01,2013-02-17 04:05:00,
2013-02-16 23:07:00,28.3,17.0,29.74,NNW,330,0.0,4.0,62,0.00,,---,0.03,0.00,VWS V14.01,2013-02-17 04:07:00,
2013-02-16 23:08:00,28.3,17.3,29.74,North,355,2.0,4.0,63,0.00,,---,0.03,0.00,VWS V14.01,2013-02-17 04:08:00,
2013-02-16 23:09:00,28.3,17.3,29.74,North,355,0.0,4.0,63,0.00,,---,0.03,0.00,VWS V14.01,2013-02-17 04:09:00,
2013-02-16 23:10:00,28.3,17.0,29.74,NNW,342,0.0,5.0,62,0.00,,---,0.03,0.00,VWS V14.01,2013-02-17 04:10:00,
2013-02-16 23:12:00,28.2,16.9,29.74,North,355,0.0,1.0,62,0.00,,---,0.03,0.00,VWS V14.01,2013-02-17 04:12:00,
2013-02-16 23:13:00,28.2,17.2,29.74,NE,34,2.0,4.0,63,0.00,,---,0.03,0.00,VWS V14.01,2013-02-17 04:13:00,
2013-02-16 23:14:00,28.2,17.2,29.73,North,355,4.0,4.0,63,0.00,,---,0.03,0.00,VWS V14.01,2013-02-17 04:14:00,
2013-02-16 23:15:00,28.2,17.2,29.73,NW,315,0.0,5.0,63,0.00,,---,0.03,0.00,VWS V14.01,2013-02-17 04:15:00,
2013-02-16 23:17:00,28.2,17.2,29.73,NE,36,4.0,6.0,63,0.00,,---,0.03,0.00,VWS V14.01,2013-02-17 04:17:00,
2013-02-16 23:18:00,28.1,17.1,29.72,North,355,2.0,6.0,63,0.00,,---,0.03,0.00,VWS V14.01,2013-02-17 04:18:00,
2013-02-16 23:19:00,28.1,16.8,29.73,North,351,4.0,6.0,62,0.00,,---,0.03,0.00,VWS V14.01,2013-02-17 04:19:00,
2013-02-16 23:21:00,28.1,17.9,29.73,NNW,327,3.0,6.0,65,0.00,,---,0.03,0.00,VWS V14.01,2013-02-17 04:21:00,
2013-02-16 23:22:00,28.1,17.5,29.73,NNE,26,2.0,3.0,64,0.00,,---,0.03,0.00,VWS V14.01,2013-02-17 04:22:00,
2013-02-16 23:23:00,28.0,17.4,29.73,North,5,4.0,5.0,64,0.00,,---,0.03,0.00,VWS V14.01,2013-02-17 04:23:00,
2013-02-16 23:24:00,28.0,17.4,29.73,North,355,0.0,5.0,64,0.00,,---,0.03,0.00,VWS V14.01,2013-02-17 04:24:00,
2013-02-16 23:26:00,27.9,17.7,29.72,NE,47,0.0,5.0,65,0.00,,---,0.03,0.00,VWS V14.01,2013-02-17 04:26:00,
2013-02-16 23:27:00,27.9,18.0,29.73,NNW,338,3.0,5.0,66,0.00,,---,0.03,0.00,VWS V14.01,2013-02-17 04:27:00,
2013-02-16 23:28:00,27.9,17.7,29.73,North,355,2.0,5.0,65,0.00,,---,0.03,0.00,VWS V14.01,2013-02-17 04:28:00,
2013-02-16 23:29:00,27.8,17.6,29.72,NE,53,4.0,6.0,65,0.00,,---,0.03,0.00,VWS V14.01,2013-02-17 04:29:00,
2013-02-16 23:31:00,27.7,17.5,29.72,WSW,253,1.0,6.0,65,0.00,,---,0.03,0.00,VWS V14.01,2013-02-17 04:31:00,
2013-02-16 23:32:00,27.6,17.7,29.72,NNE,33,0.0,1.0,66,0.00,,---,0.03,0.00,VWS V14.01,2013-02-17 04:32:00,
2013-02-16 23:34:00,27.6,17.7,29.72,North,5,3.0,3.0,66,0.00,,---,0.03,0.00,VWS V14.01,2013-02-17 04:34:00,
2013-02-16 23:36:00,27.5,17.6,29.72,North,360,0.0,4.0,66,0.00,,---,0.03,0.00,VWS V14.01,2013-02-17 04:36:00,
2013-02-16 23:37:00,27.5,18.0,29.71,North,360,0.0,4.0,67,0.00,,---,0.03,0.00,VWS V14.01,2013-02-17 04:37:00,
2013-02-16 23:39:00,27.5,17.6,29.71,NNE,31,1.0,4.0,66,0.00,,---,0.03,0.00,VWS V14.01,2013-02-17 04:39:00,
2013-02-16 23:41:00,27.4,17.9,29.71,North,5,2.0,8.0,67,0.00,,---,0.03,0.00,VWS V14.01,2013-02-17 04:41:00,
2013-02-16 23:43:00,27.4,17.2,29.71,NNW,348,0.0,3.0,65,0.00,,---,0.03,0.00,VWS V14.01,2013-02-17 04:43:00,
2013-02-16 23:44:00,27.4,17.9,29.72,NE,35,1.0,3.0,67,0.00,,---,0.03,0.00,VWS V14.01,2013-02-17 04:44:00,
2013-02-16 23:45:00,27.4,17.5,29.71,NNE,14,2.0,3.0,66,0.00,,---,0.03,0.00,VWS V14.01,2013-02-17 04:45:00,
2013-02-16 23:46:00,27.4,17.9,29.71,North,355,0.0,3.0,67,0.00,,---,0.03,0.00,VWS V14.01,2013-02-17 04:46:00,
2013-02-16 23:48:00,27.4,17.5,29.71,North,360,1.0,3.0,66,0.00,,---,0.03,0.00,VWS V14.01,2013-02-17 04:48:00,
2013-02-16 23:49:00,27.4,17.5,29.71,NW,312,1.0,4.0,66,0.00,,---,0.03,0.00,VWS V14.01,2013-02-17 04:49:00,
2013-02-16 23:50:00,27.4,17.5,29.71,NNW,342,2.0,4.0,66,0.00,,---,0.03,0.00,VWS V14.01,2013-02-17 04:50:00,
2013-02-16 23:51:00,27.4,17.2,29.71,NNW,344,0.0,4.0,65,0.00,,---,0.03,0.00,VWS V14.01,2013-02-17 04:51:00,
2013-02-16 23:53:00,27.4,17.2,29.71,NNW,346,4.0,4.0,65,0.00,,---,0.03,0.00,VWS V14.01,2013-02-17 04:53:00,
2013-02-16 23:54:00,27.4,17.2,29.71,North,5,0.0,4.0,65,0.00,,---,0.03,0.00,VWS V14.01,2013-02-17 04:54:00,
2013-02-16 23:55:00,27.4,17.2,29.71,NNE,13,0.0,4.0,65,0.00,,---,0.03,0.00,VWS V14.01,2013-02-17 04:55:00,
2013-02-16 23:56:00,27.4,17.2,29.71,NE,46,1.0,4.0,65,0.00,,---,0.03,0.00,VWS V14.01,2013-02-17 04:56:00,
2013-02-16 23:58:00,27.4,16.8,29.70,NE,46,1.0,4.0,64,0.00,,---,0.03,0.00,VWS V14.01,2013-02-17 04:58:00,
2013-02-16 23:59:00,27.4,17.2,29.70,NE,36,2.0,4.0,65,0.00,,---,0.03,0.00,VWS V14.01,2013-02-17 04:59:00,